Time,TemperatureF,DewpointF,PressureIn,WindDirection,WindDirectionDegrees,WindSpeedMPH,WindSpeedGustMPH,Humidity,HourlyPrecipIn,Conditions,Clouds,dailyrainin,SoftwareType,DateUTC
2013-05-15 00:01:00,51.6,51.6,30.16,SE,135,4.0,6.0,0,0.00,,,0.00,meteohub,2013-05-15 04:01:00,
2013-05-15 00:02:00,51.6,51.6,30.15,SE,135,4.0,6.0,0,0.00,,,0.00,meteohub,2013-05-15 04:02:00,
2013-05-15 00:06:00,51.6,51.6,30.15,SE,135,4.0,6.0,0,0.00,,,0.00,meteohub,2013-05-15 04:06:00,
2013-05-15 00:07:00,51.6,51.6,30.15,SE,135,4.0,6.0,0,0.00,,,0.00,meteohub,2013-05-15 04:07:00,
2013-05-15 00:08:00,51.6,51.6,30.15,SE,135,4.0,6.0,0,0.00,,,0.00,meteohub,2013-05-15 04:08:00,
2013-05-15 00:11:00,51.6,51.6,30.15,East,90,4.0,6.0,0,0.00,,,0.00,meteohub,2013-05-15 04:11:00,
2013-05-15 00:12:00,51.6,51.6,30.15,SE,135,4.0,6.0,0,0.00,,,0.00,meteohub,2013-05-15 04:12:00,
2013-05-15 00:13:00,51.6,51.6,30.15,SE,135,4.0,6.0,0,0.00,,,0.00,meteohub,2013-05-15 04:13:00,
2013-05-15 00:17:00,51.6,51.6,30.15,NW,315,4.0,5.0,0,0.00,,,0.00,meteohub,2013-05-15 04:17:00,
2013-05-15 00:18:00,51.6,51.6,30.15,East,90,3.0,5.0,0,0.00,,,0.00,meteohub,2013-05-15 04:18:00,
2013-05-15 00:19:00,51.6,51.6,30.15,East,90,4.0,5.0,0,0.00,,,0.00,meteohub,2013-05-15 04:19:00,
2013-05-15 00:20:00,51.6,51.6,30.14,SE,135,3.0,5.0,0,0.00,,,0.00,meteohub,2013-05-15 04:20:00,
2013-05-15 00:23:00,51.4,51.4,30.15,SE,135,4.0,5.0,0,0.00,,,0.00,meteohub,2013-05-15 04:23:00,
2013-05-15 00:24:00,51.4,51.4,30.14,SE,135,4.0,5.0,0,0.00,,,0.00,meteohub,2013-05-15 04:24:00,
2013-05-15 00:25:00,51.4,51.4,30.14,SE,135,4.0,6.0,0,0.00,,,0.00,meteohub,2013-05-15 04:25:00,
2013-05-15 00:26:00,51.4,51.4,30.14,East,90,4.0,6.0,0,0.00,,,0.00,meteohub,2013-05-15 04:26:00,
2013-05-15 00:28:00,51.4,51.4,30.14,East,90,4.0,6.0,0,0.00,,,0.00,meteohub,2013-05-15 04:28:00,
2013-05-15 00:29:00,51.4,51.4,30.14,SE,135,3.0,6.0,0,0.00,,,0.00,meteohub,2013-05-15 04:29:00,
2013-05-15 00:30:00,51.4,51.4,30.14,SE,135,3.0,6.0,0,0.00,,,0.00,meteohub,2013-05-15 04:30:00,
2013-05-15 00:31:00,51.4,51.4,30.15,SE,135,4.0,6.0,0,0.00,,,0.00,meteohub,2013-05-15 04:31:00,
2013-05-15 00:32:00,51.4,51.4,30.14,South,180,4.0,6.0,0,0.00,,,0.00,meteohub,2013-05-15 04:32:00,
2013-05-15 00:35:00,51.4,51.4,30.14,SE,135,4.0,6.0,0,0.00,,,0.00,meteohub,2013-05-15 04:35:00,
2013-05-15 00:36:00,51.4,51.4,30.14,SE,135,4.0,6.0,0,0.00,,,0.00,meteohub,2013-05-15 04:36:00,
2013-05-15 00:37:00,51.4,51.4,30.14,East,90,3.0,6.0,0,0.00,,,0.00,meteohub,2013-05-15 04:37:00,
2013-05-15 00:38:00,51.4,51.4,30.14,East,90,4.0,6.0,0,0.00,,,0.00,meteohub,2013-05-15 04:38:00,
2013-05-15 00:41:00,51.4,51.4,30.14,South,180,8.0,8.0,0,0.00,,,0.00,meteohub,2013-05-15 04:41:00,
2013-05-15 00:42:00,51.4,51.4,30.14,East,90,5.0,5.0,0,0.00,,,0.00,meteohub,2013-05-15 04:42:00,
2013-05-15 00:43:00,51.4,51.4,30.14,SE,135,4.0,4.0,0,0.00,,,0.00,meteohub,2013-05-15 04:43:00,
2013-05-15 00:44:00,51.6,51.6,30.14,SE,135,4.0,4.0,0,0.00,,,0.00,meteohub,2013-05-15 04:44:00,
2013-05-15 00:46:00,51.6,51.6,30.14,East,90,4.0,8.0,0,0.00,,,0.00,meteohub,2013-05-15 04:46:00,
2013-05-15 00:47:00,51.6,51.6,30.14,SE,135,4.0,8.0,0,0.00,,,0.00,meteohub,2013-05-15 04:47:00,
2013-05-15 00:48:00,51.6,51.6,30.14,East,90,4.0,8.0,0,0.00,,,0.00,meteohub,2013-05-15 04:48:00,
2013-05-15 00:51:00,51.6,51.6,30.14,South,180,4.0,8.0,0,0.00,,,0.00,meteohub,2013-05-15 04:51:00,
2013-05-15 00:52:00,51.6,51.6,30.14,NW,315,5.0,8.0,0,0.00,,,0.00,meteohub,2013-05-15 04:52:00,
2013-05-15 00:54:00,51.6,51.6,30.14,SE,135,4.0,8.0,0,0.00,,,0.00,meteohub,2013-05-15 04:54:00,
2013-05-15 00:55:00,51.6,51.6,30.14,South,180,6.0,8.0,0,0.00,,,0.00,meteohub,2013-05-15 04:55:00,
2013-05-15 00:57:00,51.6,51.6,30.14,East,90,5.0,8.0,0,0.00,,,0.00,meteohub,2013-05-15 04:57:00,
2013-05-15 00:58:00,51.8,51.8,30.14,SE,135,4.0,8.0,0,0.00,,,0.00,meteohub,2013-05-15 04:58:00,
2013-05-15 01:02:00,51.8,51.8,30.14,SE,135,4.0,6.0,0,0.00,,,0.00,meteohub,2013-05-15 05:02:00,
2013-05-15 01:03:00,51.8,51.8,30.14,SE,135,4.0,6.0,0,0.00,,,0.00,meteohub,2013-05-15 05:03:00,
2013-05-15 01:04:00,51.8,51.8,30.14,SE,135,4.0,6.0,0,0.00,,,0.00,meteohub,2013-05-15 05:04:00,
2013-05-15 01:07:00,51.8,51.8,30.14,East,90,4.0,6.0,0,0.00,,,0.00,meteohub,2013-05-15 05:07:00,
2013-05-15 01:08:00,51.8,51.8,30.14,East,90,4.0,6.0,0,0.00,,,0.00,meteohub,2013-05-15 05:08:00,
2013-05-15 01:09:00,51.8,51.8,30.14,WSW,248,3.0,6.0,0,0.00,,,0.00,meteohub,2013-05-15 05:09:00,
2013-05-15 01:10:00,51.8,51.8,30.14,East,90,4.0,6.0,0,0.00,,,0.00,meteohub,2013-05-15 05:10:00,
2013-05-15 01:13:00,51.8,51.8,30.14,East,90,7.0,7.0,0,0.00,,,0.00,meteohub,2013-05-15 05:13:00,
2013-05-15 01:14:00,51.8,51.8,30.13,SE,135,5.0,6.0,0,0.00,,,0.00,meteohub,2013-05-15 05:14:00,
2013-05-15 01:15:00,51.8,51.8,30.13,East,90,5.0,6.0,0,0.00,,,0.00,meteohub,2013-05-15 05:15:00,
2013-05-15 01:18:00,52.0,52.0,30.14,SE,135,3.0,7.0,0,0.00,,,0.00,meteohub,2013-05-15 05:18:00,
2013-05-15 01:19:00,52.0,52.0,30.14,South,180,3.0,7.0,0,0.00,,,0.00,meteohub,2013-05-15 05:19:00,
2013-05-15 01:20:00,52.0,52.0,30.13,East,90,6.0,7.0,0,0.00,,,0.00,meteohub,2013-05-15 05:20:00,
2013-05-15 01:21:00,52.0,52.0,30.13,North,0,4.0,7.0,0,0.00,,,0.00,meteohub,2013-05-15 05:21:00,
2013-05-15 01:23:00,52.0,52.0,30.13,SE,135,4.0,7.0,0,0.00,,,0.00,meteohub,2013-05-15 05:23:00,
2013-05-15 01:24:00,52.0,52.0,30.13,East,90,5.0,7.0,0,0.00,,,0.00,meteohub,2013-05-15 05:24:00,
2013-05-15 01:25:00,52.0,52.0,30.13,East,90,6.0,8.0,0,0.00,,,0.00,meteohub,2013-05-15 05:25:00,
2013-05-15 01:26:00,52.0,52.0,30.13,East,90,4.0,8.0,0,0.00,,,0.00,meteohub,2013-05-15 05:26:00,
2013-05-15 01:28:00,52.0,52.0,30.13,South,180,6.0,8.0,0,0.00,,,0.00,meteohub,2013-05-15 05:28:00,
2013-05-15 01:29:00,52.2,52.2,30.13,SE,135,4.0,8.0,0,0.00,,,0.00,meteohub,2013-05-15 05:29:00,
2013-05-15 01:30:00,52.0,52.0,30.14,East,90,3.0,8.0,0,0.00,,,0.00,meteohub,2013-05-15 05:30:00,
2013-05-15 01:31:00,52.0,52.0,30.14,SE,135,2.0,8.0,0,0.00,,,0.00,meteohub,2013-05-15 05:31:00,
2013-05-15 01:34:00,52.0,52.0,30.13,NE,45,4.0,8.0,0,0.00,,,0.00,meteohub,2013-05-15 05:34:00,
2013-05-15 01:35:00,52.0,52.0,30.13,SE,135,4.0,8.0,0,0.00,,,0.00,meteohub,2013-05-15 05:35:00,
2013-05-15 01:36:00,52.0,52.0,30.14,SE,135,4.0,6.0,0,0.00,,,0.00,meteohub,2013-05-15 05:36:00,
2013-05-15 01:39:00,52.0,52.0,30.13,SE,135,3.0,6.0,0,0.00,,,0.00,meteohub,2013-05-15 05:39:00,
2013-05-15 01:40:00,52.0,52.0,30.13,SE,135,3.0,6.0,0,0.00,,,0.00,meteohub,2013-05-15 05:40:00,
2013-05-15 01:41:00,52.2,52.2,30.13,East,90,4.0,6.0,0,0.00,,,0.00,meteohub,2013-05-15 05:41:00,
2013-05-15 01:45:00,52.2,52.2,30.14,SE,135,4.0,6.0,0,0.00,,,0.00,meteohub,2013-05-15 05:45:00,
2013-05-15 01:46:00,52.2,52.2,30.13,SE,135,4.0,5.0,0,0.00,,,0.00,meteohub,2013-05-15 05:46:00,
2013-05-15 01:47:00,52.2,52.2,30.13,West,270,2.0,5.0,0,0.00,,,0.00,meteohub,2013-05-15 05:47:00,
2013-05-15 01:48:00,52.2,52.2,30.13,SE,135,4.0,5.0,0,0.00,,,0.00,meteohub,2013-05-15 05:48:00,
2013-05-15 01:50:00,52.2,52.2,30.13,SE,135,5.0,5.0,0,0.00,,,0.00,meteohub,2013-05-15 05:50:00,
2013-05-15 01:51:00,52.2,52.2,30.13,SE,135,3.0,5.0,0,0.00,,,0.00,meteohub,2013-05-15 05:51:00,
2013-05-15 01:52:00,52.2,52.2,30.13,NE,45,4.0,5.0,0,0.00,,,0.00,meteohub,2013-05-15 05:52:00,
2013-05-15 01:54:00,52.2,52.2,30.14,East,90,4.0,5.0,0,0.00,,,0.00,meteohub,2013-05-15 05:54:00,
2013-05-15 01:56:00,52.0,52.0,30.14,East,90,4.0,5.0,0,0.00,,,0.00,meteohub,2013-05-15 05:56:00,
2013-05-15 01:57:00,52.2,52.2,30.14,SE,135,3.0,5.0,0,0.00,,,0.00,meteohub,2013-05-15 05:57:00,
2013-05-15 01:58:00,52.2,52.2,30.13,SE,135,4.0,5.0,0,0.00,,,0.00,meteohub,2013-05-15 05:58:00,
2013-05-15 02:00:00,52.2,52.2,30.13,NE,45,4.0,5.0,0,0.00,,,0.00,meteohub,2013-05-15 06:00:00,
2013-05-15 02:01:00,52.2,52.2,30.13,NE,45,4.0,5.0,0,0.00,,,0.00,meteohub,2013-05-15 06:01:00,
2013-05-15 02:02:00,52.2,52.2,30.13,NE,45,4.0,5.0,0,0.00,,,0.00,meteohub,2013-05-15 06:02:00,
2013-05-15 02:03:00,52.2,52.2,30.13,NE,45,4.0,5.0,0,0.00,,,0.00,meteohub,2013-05-15 06:03:00,
2013-05-15 02:04:00,52.2,52.2,30.13,NE,45,4.0,5.0,0,0.00,,,0.00,meteohub,2013-05-15 06:04:00,
2013-05-15 02:05:00,52.2,52.2,30.13,NE,45,4.0,5.0,0,0.00,,,0.00,meteohub,2013-05-15 06:05:00,
2013-05-15 02:06:00,52.2,52.2,30.13,NE,45,4.0,5.0,0,0.00,,,0.00,meteohub,2013-05-15 06:06:00,
2013-05-15 02:08:00,52.2,52.2,30.13,SE,135,4.0,5.0,0,0.00,,,0.00,meteohub,2013-05-15 06:08:00,
2013-05-15 02:09:00,52.2,52.2,30.13,SE,135,4.0,5.0,0,0.00,,,0.00,meteohub,2013-05-15 06:09:00,
2013-05-15 02:11:00,52.2,52.2,30.12,SE,135,4.0,4.0,0,0.00,,,0.00,meteohub,2013-05-15 06:11:00,
2013-05-15 02:13:00,52.2,52.2,30.12,SE,135,4.0,4.0,0,0.00,,,0.00,meteohub,2013-05-15 06:13:00,
2013-05-15 02:15:00,52.3,52.3,30.12,South,180,6.0,6.0,0,0.00,,,0.00,meteohub,2013-05-15 06:15:00,
2013-05-15 02:16:00,52.3,52.3,30.12,East,90,4.0,6.0,0,0.00,,,0.00,meteohub,2013-05-15 06:16:00,
2013-05-15 02:17:00,52.3,52.3,30.12,SE,135,8.0,8.0,0,0.00,,,0.00,meteohub,2013-05-15 06:17:00,
2013-05-15 02:18:00,52.3,52.3,30.12,East,90,3.0,6.0,0,0.00,,,0.00,meteohub,2013-05-15 06:18:00,
2013-05-15 02:21:00,52.2,52.2,30.12,East,90,4.0,8.0,0,0.00,,,0.00,meteohub,2013-05-15 06:21:00,
2013-05-15 02:22:00,52.3,52.3,30.12,South,180,4.0,8.0,0,0.00,,,0.00,meteohub,2013-05-15 06:22:00,
2013-05-15 02:23:00,52.2,52.2,30.12,SE,135,4.0,8.0,0,0.00,,,0.00,meteohub,2013-05-15 06:23:00,
2013-05-15 02:25:00,52.2,52.2,30.12,WSW,248,2.0,8.0,0,0.00,,,0.00,meteohub,2013-05-15 06:25:00,
2013-05-15 02:26:00,52.2,52.2,30.13,South,180,4.0,8.0,0,0.00,,,0.00,meteohub,2013-05-15 06:26:00,
2013-05-15 02:28:00,52.2,52.2,30.12,South,180,3.0,8.0,0,0.00,,,0.00,meteohub,2013-05-15 06:28:00,
2013-05-15 02:30:00,52.2,52.2,30.12,South,180,4.0,8.0,0,0.00,,,0.00,meteohub,2013-05-15 06:30:00,
2013-05-15 02:32:00,52.2,52.2,30.12,SE,135,4.0,8.0,0,0.00,,,0.00,meteohub,2013-05-15 06:32:00,
2013-05-15 02:33:00,52.2,52.2,30.12,SE,135,4.0,8.0,0,0.00,,,0.00,meteohub,2013-05-15 06:33:00,
2013-05-15 02:34:00,52.2,52.2,30.12,SE,135,3.0,8.0,0,0.00,,,0.00,meteohub,2013-05-15 06:34:00,
2013-05-15 02:35:00,52.2,52.2,30.12,South,180,3.0,6.0,0,0.00,,,0.00,meteohub,2013-05-15 06:35:00,
2013-05-15 02:37:00,52.2,52.2,30.12,SE,135,4.0,6.0,0,0.00,,,0.00,meteohub,2013-05-15 06:37:00,
2013-05-15 02:39:00,52.2,52.2,30.12,South,180,4.0,6.0,0,0.00,,,0.00,meteohub,2013-05-15 06:39:00,
2013-05-15 02:40:00,52.2,52.2,30.12,East,90,4.0,6.0,0,0.00,,,0.00,meteohub,2013-05-15 06:40:00,
2013-05-15 02:42:00,52.3,52.3,30.12,South,180,3.0,6.0,0,0.00,,,0.00,meteohub,2013-05-15 06:42:00,
2013-05-15 02:44:00,52.3,52.3,30.12,East,90,4.0,6.0,0,0.00,,,0.00,meteohub,2013-05-15 06:44:00,
2013-05-15 02:45:00,52.3,52.3,30.12,East,90,4.0,4.0,0,0.00,,,0.00,meteohub,2013-05-15 06:45:00,
2013-05-15 02:47:00,52.2,52.2,30.11,SE,135,4.0,4.0,0,0.00,,,0.00,meteohub,2013-05-15 06:47:00,
2013-05-15 02:48:00,52.2,52.2,30.11,South,180,4.0,4.0,0,0.00,,,0.00,meteohub,2013-05-15 06:48:00,
2013-05-15 02:50:00,52.2,52.2,30.11,South,180,5.0,5.0,0,0.00,,,0.00,meteohub,2013-05-15 06:50:00,
2013-05-15 02:51:00,52.2,52.2,30.11,South,180,5.0,5.0,0,0.00,,,0.00,meteohub,2013-05-15 06:51:00,
2013-05-15 02:53:00,52.2,52.2,30.12,ESE,113,4.0,4.0,0,0.00,,,0.00,meteohub,2013-05-15 06:53:00,
2013-05-15 02:54:00,52.2,52.2,30.11,SE,135,4.0,4.0,0,0.00,,,0.00,meteohub,2013-05-15 06:54:00,
2013-05-15 02:56:00,52.2,52.2,30.11,SE,135,3.0,6.0,0,0.00,,,0.00,meteohub,2013-05-15 06:56:00,
2013-05-15 02:57:00,52.2,52.2,30.11,SE,135,4.0,6.0,0,0.00,,,0.00,meteohub,2013-05-15 06:57:00,
2013-05-15 02:59:00,52.2,52.2,30.11,East,90,5.0,6.0,0,0.00,,,0.00,meteohub,2013-05-15 06:59:00,
2013-05-15 03:01:00,52.2,52.2,30.11,South,180,3.0,6.0,0,0.00,,,0.00,meteohub,2013-05-15 07:01:00,
2013-05-15 03:02:00,52.2,52.2,30.10,South,180,3.0,6.0,0,0.00,,,0.00,meteohub,2013-05-15 07:02:00,
2013-05-15 03:03:00,52.2,52.2,30.10,South,180,3.0,6.0,0,0.00,,,0.00,meteohub,2013-05-15 07:03:00,
2013-05-15 03:04:00,52.2,52.2,30.10,South,180,3.0,6.0,0,0.00,,,0.00,meteohub,2013-05-15 07:04:00,
2013-05-15 03:05:00,52.2,52.2,30.11,South,180,3.0,6.0,0,0.00,,,0.00,meteohub,2013-05-15 07:05:00,
2013-05-15 03:07:00,52.2,52.2,30.10,South,180,3.0,6.0,0,0.00,,,0.00,meteohub,2013-05-15 07:07:00,
2013-05-15 03:08:00,52.0,52.0,30.11,South,180,4.0,6.0,0,0.00,,,0.00,meteohub,2013-05-15 07:08:00,
2013-05-15 03:09:00,52.0,52.0,30.11,SE,135,3.0,6.0,0,0.00,,,0.00,meteohub,2013-05-15 07:09:00,
2013-05-15 03:11:00,51.8,51.8,30.10,NE,45,3.0,6.0,0,0.00,,,0.00,meteohub,2013-05-15 07:11:00,
2013-05-15 03:12:00,51.8,51.8,30.10,South,180,4.0,6.0,0,0.00,,,0.00,meteohub,2013-05-15 07:12:00,
2013-05-15 03:14:00,52.0,52.0,30.11,SE,135,4.0,6.0,0,0.00,,,0.00,meteohub,2013-05-15 07:14:00,
2013-05-15 03:17:00,52.0,52.0,30.10,South,180,4.0,4.0,0,0.00,,,0.00,meteohub,2013-05-15 07:17:00,
2013-05-15 03:18:00,52.0,52.0,30.10,WSW,248,4.0,4.0,0,0.00,,,0.00,meteohub,2013-05-15 07:18:00,
2013-05-15 03:20:00,52.0,52.0,30.10,NE,45,3.0,4.0,0,0.00,,,0.00,meteohub,2013-05-15 07:20:00,
2013-05-15 03:23:00,52.0,52.0,30.10,South,180,4.0,4.0,0,0.00,,,0.00,meteohub,2013-05-15 07:23:00,
2013-05-15 03:24:00,52.0,52.0,30.10,South,180,6.0,6.0,0,0.00,,,0.00,meteohub,2013-05-15 07:24:00,
2013-05-15 03:25:00,52.0,52.0,30.11,South,180,3.0,4.0,0,0.00,,,0.00,meteohub,2013-05-15 07:25:00,
2013-05-15 03:29:00,52.0,52.0,30.11,SE,135,4.0,6.0,0,0.00,,,0.00,meteohub,2013-05-15 07:29:00,
2013-05-15 03:31:00,52.0,52.0,30.10,SE,135,4.0,6.0,0,0.00,,,0.00,meteohub,2013-05-15 07:31:00,
2013-05-15 03:32:00,52.0,52.0,30.10,SE,135,4.0,6.0,0,0.00,,,0.00,meteohub,2013-05-15 07:32:00,
2013-05-15 03:34:00,52.0,52.0,30.10,South,180,4.0,6.0,0,0.00,,,0.00,meteohub,2013-05-15 07:34:00,
2013-05-15 03:36:00,52.0,52.0,30.10,SE,135,3.0,6.0,0,0.00,,,0.00,meteohub,2013-05-15 07:36:00,
2013-05-15 03:38:00,52.0,52.0,30.10,South,180,4.0,6.0,0,0.00,,,0.00,meteohub,2013-05-15 07:38:00,
2013-05-15 03:39:00,52.0,52.0,30.10,SE,135,5.0,6.0,0,0.00,,,0.00,meteohub,2013-05-15 07:39:00,
2013-05-15 03:42:00,52.0,52.0,30.10,West,270,4.0,6.0,0,0.00,,,0.00,meteohub,2013-05-15 07:42:00,
2013-05-15 03:43:00,52.2,52.2,30.10,SE,135,3.0,6.0,0,0.00,,,0.00,meteohub,2013-05-15 07:43:00,
2013-05-15 03:44:00,52.2,52.2,30.10,SE,135,5.0,6.0,0,0.00,,,0.00,meteohub,2013-05-15 07:44:00,
2013-05-15 03:45:00,52.2,52.2,30.09,South,180,4.0,6.0,0,0.00,,,0.00,meteohub,2013-05-15 07:45:00,
2013-05-15 03:46:00,52.2,52.2,30.09,SE,135,4.0,6.0,0,0.00,,,0.00,meteohub,2013-05-15 07:46:00,
2013-05-15 03:47:00,52.3,52.3,30.09,SE,135,4.0,6.0,0,0.00,,,0.00,meteohub,2013-05-15 07:47:00,
2013-05-15 03:49:00,52.3,52.3,30.09,SE,135,4.0,6.0,0,0.00,,,0.00,meteohub,2013-05-15 07:49:00,
2013-05-15 03:50:00,52.2,52.2,30.09,SE,135,3.0,5.0,0,0.00,,,0.00,meteohub,2013-05-15 07:50:00,
2013-05-15 03:51:00,52.2,52.2,30.09,SE,135,4.0,5.0,0,0.00,,,0.00,meteohub,2013-05-15 07:51:00,
2013-05-15 03:52:00,52.2,52.2,30.09,SE,135,4.0,5.0,0,0.00,,,0.00,meteohub,2013-05-15 07:52:00,
2013-05-15 03:55:00,52.0,52.0,30.09,SE,135,3.0,5.0,0,0.00,,,0.00,meteohub,2013-05-15 07:55:00,
2013-05-15 03:56:00,52.0,52.0,30.09,SE,135,3.0,5.0,0,0.00,,,0.00,meteohub,2013-05-15 07:56:00,
2013-05-15 03:57:00,51.8,51.8,30.09,South,180,3.0,5.0,0,0.00,,,0.00,meteohub,2013-05-15 07:57:00,
2013-05-15 04:01:00,51.8,51.8,30.09,East,90,3.0,4.0,0,0.00,,,0.00,meteohub,2013-05-15 08:01:00,
2013-05-15 04:02:00,51.8,51.8,30.09,East,90,3.0,4.0,0,0.00,,,0.00,meteohub,2013-05-15 08:02:00,
2013-05-15 04:03:00,51.8,51.8,30.10,East,90,3.0,4.0,0,0.00,,,0.00,meteohub,2013-05-15 08:03:00,
2013-05-15 04:06:00,51.8,51.8,30.09,East,90,3.0,4.0,0,0.00,,,0.00,meteohub,2013-05-15 08:06:00,
2013-05-15 04:07:00,51.8,51.8,30.10,East,90,3.0,4.0,0,0.00,,,0.00,meteohub,2013-05-15 08:07:00,
2013-05-15 04:08:00,52.0,52.0,30.09,East,90,3.0,4.0,0,0.00,,,0.00,meteohub,2013-05-15 08:08:00,
2013-05-15 04:09:00,52.0,52.0,30.09,South,180,4.0,4.0,0,0.00,,,0.00,meteohub,2013-05-15 08:09:00,
2013-05-15 04:12:00,52.2,52.2,30.09,South,180,4.0,4.0,0,0.00,,,0.00,meteohub,2013-05-15 08:12:00,
2013-05-15 04:14:00,52.2,52.2,30.10,NE,45,3.0,4.0,0,0.00,,,0.00,meteohub,2013-05-15 08:14:00,
2013-05-15 04:15:00,52.2,52.2,30.09,South,180,4.0,4.0,0,0.00,,,0.00,meteohub,2013-05-15 08:15:00,
2013-05-15 04:17:00,52.3,52.3,30.09,WSW,248,4.0,7.0,0,0.00,,,0.00,meteohub,2013-05-15 08:17:00,
2013-05-15 04:18:00,52.3,52.3,30.09,South,180,4.0,7.0,0,0.00,,,0.00,meteohub,2013-05-15 08:18:00,
2013-05-15 04:19:00,52.3,52.3,30.09,South,180,3.0,7.0,0,0.00,,,0.00,meteohub,2013-05-15 08:19:00,
2013-05-15 04:20:00,52.3,52.3,30.09,South,180,4.0,7.0,0,0.00,,,0.00,meteohub,2013-05-15 08:20:00,
2013-05-15 04:23:00,52.3,52.3,30.09,SE,135,4.0,7.0,0,0.00,,,0.00,meteohub,2013-05-15 08:23:00,
2013-05-15 04:25:00,52.3,52.3,30.09,SE,135,4.0,7.0,0,0.00,,,0.00,meteohub,2013-05-15 08:25:00,
2013-05-15 04:26:00,52.3,52.3,30.09,SE,135,4.0,7.0,0,0.00,,,0.00,meteohub,2013-05-15 08:26:00,
2013-05-15 04:28:00,52.3,52.3,30.09,South,180,5.0,7.0,0,0.00,,,0.00,meteohub,2013-05-15 08:28:00,
2013-05-15 04:29:00,52.3,52.3,30.08,SE,135,3.0,7.0,0,0.00,,,0.00,meteohub,2013-05-15 08:29:00,
2013-05-15 04:30:00,52.3,52.3,30.08,South,180,3.0,5.0,0,0.00,,,0.00,meteohub,2013-05-15 08:30:00,
2013-05-15 04:31:00,52.3,52.3,30.09,South,180,3.0,5.0,0,0.00,,,0.00,meteohub,2013-05-15 08:31:00,
2013-05-15 04:35:00,52.5,52.5,30.09,SE,135,3.0,5.0,0,0.00,,,0.00,meteohub,2013-05-15 08:35:00,
2013-05-15 04:36:00,52.5,52.5,30.09,SE,135,4.0,5.0,0,0.00,,,0.00,meteohub,2013-05-15 08:36:00,
2013-05-15 04:37:00,52.5,52.5,30.09,SE,135,3.0,5.0,0,0.00,,,0.00,meteohub,2013-05-15 08:37:00,
2013-05-15 04:38:00,52.5,52.5,30.09,SE,135,3.0,5.0,0,0.00,,,0.00,meteohub,2013-05-15 08:38:00,
2013-05-15 04:41:00,52.7,52.7,30.09,SE,135,3.0,5.0,0,0.00,,,0.00,meteohub,2013-05-15 08:41:00,
2013-05-15 04:42:00,52.7,52.7,30.09,SE,135,3.0,5.0,0,0.00,,,0.00,meteohub,2013-05-15 08:42:00,
2013-05-15 04:43:00,52.7,52.7,30.09,South,180,3.0,5.0,0,0.00,,,0.00,meteohub,2013-05-15 08:43:00,
2013-05-15 04:47:00,52.9,52.9,30.09,SE,135,6.0,6.0,0,0.00,,,0.00,meteohub,2013-05-15 08:47:00,
2013-05-15 04:48:00,52.9,52.9,30.09,South,180,6.0,6.0,0,0.00,,,0.00,meteohub,2013-05-15 08:48:00,
2013-05-15 04:49:00,52.9,52.9,30.09,SE,135,4.0,5.0,0,0.00,,,0.00,meteohub,2013-05-15 08:49:00,
2013-05-15 04:52:00,53.1,53.1,30.09,South,180,3.0,7.0,0,0.00,,,0.00,meteohub,2013-05-15 08:52:00,
2013-05-15 04:53:00,53.1,53.1,30.09,South,180,2.0,7.0,0,0.00,,,0.00,meteohub,2013-05-15 08:53:00,
2013-05-15 04:54:00,53.1,53.1,30.09,WSW,248,2.0,7.0,0,0.00,,,0.00,meteohub,2013-05-15 08:54:00,
2013-05-15 04:55:00,53.1,53.1,30.09,South,180,2.0,7.0,0,0.00,,,0.00,meteohub,2013-05-15 08:55:00,
2013-05-15 04:57:00,53.1,53.1,30.09,South,180,3.0,7.0,0,0.00,,,0.00,meteohub,2013-05-15 08:57:00,
2013-05-15 04:58:00,53.1,53.1,30.09,South,180,3.0,7.0,0,0.00,,,0.00,meteohub,2013-05-15 08:58:00,
2013-05-15 04:59:00,53.1,53.1,30.09,South,180,4.0,7.0,0,0.00,,,0.00,meteohub,2013-05-15 08:59:00,
2013-05-15 05:01:00,53.1,53.1,30.09,South,180,4.0,7.0,0,0.00,,,0.00,meteohub,2013-05-15 09:01:00,
2013-05-15 05:02:00,53.1,53.1,30.09,South,180,4.0,7.0,0,0.00,,,0.00,meteohub,2013-05-15 09:02:00,
2013-05-15 05:04:00,53.1,53.1,30.09,South,180,4.0,7.0,0,0.00,,,0.00,meteohub,2013-05-15 09:04:00,
2013-05-15 05:06:00,53.1,53.1,30.09,South,180,4.0,4.0,0,0.00,,,0.00,meteohub,2013-05-15 09:06:00,
2013-05-15 05:09:00,53.2,53.2,30.09,South,180,3.0,4.0,0,0.00,,,0.00,meteohub,2013-05-15 09:09:00,
2013-05-15 05:10:00,53.2,53.2,30.09,SE,135,3.0,4.0,0,0.00,,,0.00,meteohub,2013-05-15 09:10:00,
2013-05-15 05:11:00,53.2,53.2,30.09,South,180,2.0,4.0,0,0.00,,,0.00,meteohub,2013-05-15 09:11:00,
2013-05-15 05:15:00,53.2,53.2,30.09,SE,135,3.0,4.0,0,0.00,,,0.00,meteohub,2013-05-15 09:15:00,
2013-05-15 05:16:00,53.2,53.2,30.09,South,180,2.0,4.0,0,0.00,,,0.00,meteohub,2013-05-15 09:16:00,
2013-05-15 05:18:00,53.2,53.2,30.09,SE,135,2.0,4.0,0,0.00,,,0.00,meteohub,2013-05-15 09:18:00,
2013-05-15 05:20:00,53.2,53.2,30.10,South,180,4.0,4.0,0,0.00,,,0.00,meteohub,2013-05-15 09:20:00,
2013-05-15 05:21:00,53.2,53.2,30.10,South,180,4.0,4.0,0,0.00,,,0.00,meteohub,2013-05-15 09:21:00,
2013-05-15 05:25:00,53.2,53.2,30.10,South,180,3.0,4.0,0,0.00,,,0.00,meteohub,2013-05-15 09:25:00,
2013-05-15 05:26:00,53.2,53.2,30.09,South,180,2.0,4.0,0,0.00,,,0.00,meteohub,2013-05-15 09:26:00,
2013-05-15 05:27:00,53.2,53.2,30.09,SE,135,4.0,4.0,0,0.00,,,0.00,meteohub,2013-05-15 09:27:00,
2013-05-15 05:30:00,53.2,53.2,30.09,WSW,248,3.0,4.0,0,0.00,,,0.00,meteohub,2013-05-15 09:30:00,
2013-05-15 05:31:00,53.1,53.1,30.09,South,180,4.0,8.0,0,0.00,,,0.00,meteohub,2013-05-15 09:31:00,
2013-05-15 05:33:00,52.9,52.9,30.09,South,180,4.0,8.0,0,0.00,,,0.00,meteohub,2013-05-15 09:33:00,
2013-05-15 05:36:00,52.9,52.9,30.10,South,180,2.0,8.0,0,0.00,,,0.00,meteohub,2013-05-15 09:36:00,
2013-05-15 05:39:00,52.7,52.7,30.10,SE,135,4.0,8.0,0,0.00,,,0.00,meteohub,2013-05-15 09:39:00,
2013-05-15 05:42:00,52.7,52.7,30.09,South,180,3.0,8.0,0,0.00,,,0.00,meteohub,2013-05-15 09:42:00,
2013-05-15 05:43:00,52.5,52.5,30.10,South,180,4.0,8.0,0,0.00,,,0.00,meteohub,2013-05-15 09:43:00,
2013-05-15 05:44:00,52.5,52.5,30.09,SE,135,4.0,8.0,0,0.00,,,0.00,meteohub,2013-05-15 09:44:00,
2013-05-15 05:47:00,52.2,52.2,30.09,South,180,4.0,5.0,0,0.00,,,0.00,meteohub,2013-05-15 09:47:00,
2013-05-15 05:48:00,52.0,52.0,30.09,South,180,3.0,5.0,0,0.00,,,0.00,meteohub,2013-05-15 09:48:00,
2013-05-15 05:49:00,52.0,52.0,30.09,WSW,248,4.0,5.0,0,0.00,,,0.00,meteohub,2013-05-15 09:49:00,
2013-05-15 05:52:00,52.0,52.0,30.10,South,180,4.0,5.0,0,0.00,,,0.00,meteohub,2013-05-15 09:52:00,
2013-05-15 05:53:00,52.0,52.0,30.09,SE,135,5.0,5.0,0,0.00,,,0.00,meteohub,2013-05-15 09:53:00,
2013-05-15 05:55:00,52.0,52.0,30.08,South,180,4.0,5.0,0,0.01,,,0.01,meteohub,2013-05-15 09:55:00,
2013-05-15 05:57:00,52.0,52.0,30.08,SE,135,5.0,5.0,0,0.01,,,0.01,meteohub,2013-05-15 09:57:00,
2013-05-15 05:58:00,52.0,52.0,30.09,South,180,6.0,6.0,0,0.01,,,0.01,meteohub,2013-05-15 09:58:00,
2013-05-15 05:59:00,52.0,52.0,30.09,SE,135,3.0,5.0,0,0.01,,,0.01,meteohub,2013-05-15 09:59:00,
2013-05-15 06:01:00,52.0,52.0,30.09,SE,135,3.0,6.0,0,0.01,,,0.01,meteohub,2013-05-15 10:01:00,
2013-05-15 06:03:00,52.2,52.2,30.09,SE,135,5.0,6.0,0,0.01,,,0.01,meteohub,2013-05-15 10:03:00,
2013-05-15 06:04:00,52.3,52.3,30.09,WSW,248,4.0,6.0,0,0.01,,,0.01,meteohub,2013-05-15 10:04:00,
2013-05-15 06:07:00,52.2,52.2,30.08,South,180,5.0,6.0,0,0.01,,,0.01,meteohub,2013-05-15 10:07:00,
2013-05-15 06:08:00,52.2,52.2,30.08,South,180,4.0,6.0,0,0.01,,,0.01,meteohub,2013-05-15 10:08:00,
2013-05-15 06:10:00,52.2,52.2,30.08,SE,135,4.0,6.0,0,0.01,,,0.01,meteohub,2013-05-15 10:10:00,
2013-05-15 06:13:00,52.3,52.3,30.08,SE,135,5.0,6.0,0,0.01,,,0.01,meteohub,2013-05-15 10:13:00,
2013-05-15 06:14:00,52.5,52.5,30.09,South,180,4.0,6.0,0,0.01,,,0.01,meteohub,2013-05-15 10:14:00,
2013-05-15 06:15:00,52.5,52.5,30.08,South,180,3.0,6.0,0,0.01,,,0.01,meteohub,2013-05-15 10:15:00,
2013-05-15 06:17:00,52.5,52.5,30.08,South,180,3.0,7.0,0,0.01,,,0.01,meteohub,2013-05-15 10:17:00,
2013-05-15 06:18:00,52.5,52.5,30.08,South,180,3.0,7.0,0,0.01,,,0.01,meteohub,2013-05-15 10:18:00,
2013-05-15 06:20:00,52.5,52.5,30.08,South,180,3.0,7.0,0,0.01,,,0.01,meteohub,2013-05-15 10:20:00,
2013-05-15 06:21:00,52.5,52.5,30.08,South,180,3.0,7.0,0,0.01,,,0.01,meteohub,2013-05-15 10:21:00,
2013-05-15 06:22:00,52.5,52.5,30.08,South,180,3.0,7.0,0,0.01,,,0.01,meteohub,2013-05-15 10:22:00,
2013-05-15 06:23:00,53.4,53.4,30.08,SE,135,4.0,7.0,0,0.01,,,0.01,meteohub,2013-05-15 10:23:00,
2013-05-15 06:26:00,53.6,53.6,30.08,South,180,4.0,7.0,0,0.01,,,0.01,meteohub,2013-05-15 10:26:00,
2013-05-15 06:27:00,53.6,53.6,30.08,WSW,248,8.0,8.0,0,0.01,,,0.01,meteohub,2013-05-15 10:27:00,
2013-05-15 06:28:00,53.8,53.8,30.08,South,180,4.0,7.0,0,0.01,,,0.01,meteohub,2013-05-15 10:28:00,
2013-05-15 06:31:00,54.1,54.1,30.09,South,180,2.0,8.0,0,0.01,,,0.01,meteohub,2013-05-15 10:31:00,
2013-05-15 06:32:00,54.1,54.1,30.09,South,180,2.0,8.0,0,0.01,,,0.01,meteohub,2013-05-15 10:32:00,
2013-05-15 06:33:00,54.1,54.1,30.08,SE,135,4.0,8.0,0,0.01,,,0.01,meteohub,2013-05-15 10:33:00,
2013-05-15 06:34:00,54.1,54.1,30.09,South,180,5.0,8.0,0,0.01,,,0.01,meteohub,2013-05-15 10:34:00,
2013-05-15 06:38:00,54.7,54.7,30.09,South,180,4.0,8.0,0,0.01,,,0.01,meteohub,2013-05-15 10:38:00,
2013-05-15 06:39:00,54.7,54.7,30.09,South,180,4.0,8.0,0,0.01,,,0.01,meteohub,2013-05-15 10:39:00,
2013-05-15 06:40:00,54.7,54.7,30.09,West,270,8.0,8.0,0,0.01,,,0.01,meteohub,2013-05-15 10:40:00,
2013-05-15 06:41:00,54.7,54.7,30.09,East,90,7.0,8.0,0,0.01,,,0.01,meteohub,2013-05-15 10:41:00,
2013-05-15 06:44:00,54.7,54.7,30.09,WSW,248,6.0,8.0,0,0.01,,,0.01,meteohub,2013-05-15 10:44:00,
2013-05-15 06:45:00,54.9,54.9,30.09,WSW,248,7.0,8.0,0,0.01,,,0.01,meteohub,2013-05-15 10:45:00,
2013-05-15 06:46:00,54.9,54.9,30.09,South,180,2.0,8.0,0,0.01,,,0.01,meteohub,2013-05-15 10:46:00,
2013-05-15 06:48:00,54.9,54.9,30.09,WSW,248,8.0,8.0,0,0.01,,,0.01,meteohub,2013-05-15 10:48:00,
2013-05-15 06:49:00,55.0,55.0,30.09,South,180,5.0,8.0,0,0.01,,,0.01,meteohub,2013-05-15 10:49:00,
2013-05-15 06:50:00,55.0,55.0,30.09,South,180,4.0,8.0,0,0.01,,,0.01,meteohub,2013-05-15 10:50:00,
2013-05-15 06:51:00,55.0,55.0,30.09,WSW,248,3.0,8.0,0,0.00,,,0.01,meteohub,2013-05-15 10:51:00,
2013-05-15 06:53:00,55.0,55.0,30.08,East,90,4.0,8.0,0,0.00,,,0.01,meteohub,2013-05-15 10:53:00,
2013-05-15 06:54:00,55.0,55.0,30.08,SE,135,2.0,8.0,0,0.00,,,0.01,meteohub,2013-05-15 10:54:00,
2013-05-15 06:55:00,54.9,54.9,30.08,South,180,4.0,8.0,0,0.00,,,0.01,meteohub,2013-05-15 10:55:00,
2013-05-15 06:57:00,54.9,54.9,30.09,WSW,248,6.0,8.0,0,0.00,,,0.01,meteohub,2013-05-15 10:57:00,
2013-05-15 06:59:00,54.7,54.7,30.09,SE,135,5.0,8.0,0,0.00,,,0.01,meteohub,2013-05-15 10:59:00,
2013-05-15 07:00:00,54.7,54.7,30.09,WSW,248,5.0,8.0,0,0.00,,,0.01,meteohub,2013-05-15 11:00:00,
2013-05-15 07:04:00,54.7,54.7,30.09,WSW,248,5.0,8.0,0,0.00,,,0.01,meteohub,2013-05-15 11:04:00,
2013-05-15 07:05:00,54.7,54.7,30.09,WSW,248,5.0,8.0,0,0.00,,,0.01,meteohub,2013-05-15 11:05:00,
2013-05-15 07:07:00,54.0,54.0,30.10,SE,135,4.0,8.0,0,0.00,,,0.01,meteohub,2013-05-15 11:07:00,
2013-05-15 07:10:00,53.8,53.8,30.10,South,180,3.0,8.0,0,0.00,,,0.01,meteohub,2013-05-15 11:10:00,
2013-05-15 07:11:00,53.8,53.8,30.10,SE,135,4.0,8.0,0,0.00,,,0.01,meteohub,2013-05-15 11:11:00,
2013-05-15 07:13:00,53.8,53.8,30.09,South,180,3.0,8.0,0,0.00,,,0.01,meteohub,2013-05-15 11:13:00,
2013-05-15 07:15:00,53.4,53.4,30.09,South,180,4.0,8.0,0,0.00,,,0.01,meteohub,2013-05-15 11:15:00,
2013-05-15 07:17:00,53.2,53.2,30.10,South,180,6.0,6.0,0,0.01,,,0.02,meteohub,2013-05-15 11:17:00,
2013-05-15 07:20:00,53.4,53.4,30.09,South,180,4.0,5.0,0,0.01,,,0.02,meteohub,2013-05-15 11:20:00,
2013-05-15 07:21:00,53.4,53.4,30.09,SE,135,4.0,6.0,0,0.01,,,0.02,meteohub,2013-05-15 11:21:00,
2013-05-15 07:22:00,53.4,53.4,30.08,SE,135,4.0,6.0,0,0.01,,,0.02,meteohub,2013-05-15 11:22:00,
2013-05-15 07:26:00,53.2,53.2,30.07,East,90,2.0,6.0,0,0.01,,,0.02,meteohub,2013-05-15 11:26:00,
2013-05-15 07:27:00,53.4,53.4,30.07,WSW,248,2.0,6.0,0,0.01,,,0.02,meteohub,2013-05-15 11:27:00,
2013-05-15 07:28:00,53.4,53.4,30.08,WSW,248,4.0,6.0,0,0.01,,,0.02,meteohub,2013-05-15 11:28:00,
2013-05-15 07:29:00,53.6,53.6,30.08,South,180,4.0,6.0,0,0.01,,,0.02,meteohub,2013-05-15 11:29:00,
2013-05-15 07:32:00,53.8,53.8,30.09,WSW,248,4.0,6.0,0,0.02,,,0.04,meteohub,2013-05-15 11:32:00,
2013-05-15 07:34:00,54.0,54.0,30.09,WSW,248,4.0,6.0,0,0.02,,,0.04,meteohub,2013-05-15 11:34:00,
2013-05-15 07:38:00,54.3,54.3,30.09,South,180,2.0,6.0,0,0.02,,,0.04,meteohub,2013-05-15 11:38:00,
2013-05-15 07:39:00,54.5,54.5,30.10,WSW,248,6.0,6.0,0,0.02,,,0.04,meteohub,2013-05-15 11:39:00,
2013-05-15 07:40:00,54.5,54.5,30.10,West,270,2.0,6.0,0,0.02,,,0.04,meteohub,2013-05-15 11:40:00,
2013-05-15 07:41:00,54.5,54.5,30.10,West,270,5.0,10.0,0,0.02,,,0.04,meteohub,2013-05-15 11:41:00,
2013-05-15 07:44:00,54.5,54.5,30.10,South,180,2.0,10.0,0,0.02,,,0.04,meteohub,2013-05-15 11:44:00,
2013-05-15 07:45:00,54.5,54.5,30.10,South,180,2.0,10.0,0,0.02,,,0.04,meteohub,2013-05-15 11:45:00,
2013-05-15 07:47:00,54.5,54.5,30.10,West,270,5.0,10.0,0,0.02,,,0.04,meteohub,2013-05-15 11:47:00,
2013-05-15 07:50:00,54.3,54.3,30.09,SE,135,3.0,10.0,0,0.04,,,0.05,meteohub,2013-05-15 11:50:00,
2013-05-15 07:51:00,54.1,54.1,30.08,East,90,3.0,10.0,0,0.04,,,0.05,meteohub,2013-05-15 11:51:00,
2013-05-15 07:56:00,53.6,53.6,30.08,SE,135,4.0,10.0,0,0.04,,,0.06,meteohub,2013-05-15 11:56:00,
2013-05-15 07:57:00,53.6,53.6,30.07,WSW,248,2.0,5.0,0,0.05,,,0.06,meteohub,2013-05-15 11:57:00,
2013-05-15 07:58:00,53.6,53.6,30.07,East,90,3.0,5.0,0,0.05,,,0.06,meteohub,2013-05-15 11:58:00,
2013-05-15 08:01:00,53.6,53.6,30.08,East,90,1.0,6.0,0,0.05,,,0.06,meteohub,2013-05-15 12:01:00,
2013-05-15 08:02:00,54.0,54.0,30.07,South,180,10.0,10.0,0,0.05,,,0.06,meteohub,2013-05-15 12:02:00,
2013-05-15 08:03:00,54.3,54.3,30.06,SE,135,5.0,6.0,0,0.05,,,0.06,meteohub,2013-05-15 12:03:00,
2013-05-15 08:08:00,54.9,-0.8,30.06,SE,135,4.0,10.0,10,0.05,,,0.06,meteohub,2013-05-15 12:08:00,
2013-05-15 08:09:00,55.0,-0.6,30.06,South,180,4.0,10.0,10,0.05,,,0.06,meteohub,2013-05-15 12:09:00,
2013-05-15 08:13:00,55.4,-0.2,30.08,South,180,5.0,10.0,10,0.05,,,0.06,meteohub,2013-05-15 12:13:00,
2013-05-15 08:14:00,55.4,55.4,30.07,North,0,5.0,10.0,0,0.05,,,0.06,meteohub,2013-05-15 12:14:00,
2013-05-15 08:15:00,55.4,55.4,30.07,WSW,248,7.0,10.0,0,0.04,,,0.06,meteohub,2013-05-15 12:15:00,
2013-05-15 08:18:00,55.6,55.6,30.08,East,90,8.0,10.0,0,0.04,,,0.06,meteohub,2013-05-15 12:18:00,
2013-05-15 08:19:00,55.6,55.6,30.08,South,180,3.0,10.0,0,0.04,,,0.06,meteohub,2013-05-15 12:19:00,
2013-05-15 08:20:00,55.9,55.9,30.08,SE,135,3.0,8.0,0,0.04,,,0.06,meteohub,2013-05-15 12:20:00,
2013-05-15 08:22:00,56.3,56.3,30.08,South,180,4.0,8.0,0,0.04,,,0.06,meteohub,2013-05-15 12:22:00,
2013-05-15 08:24:00,56.7,56.7,30.09,WSW,248,4.0,8.0,0,0.04,,,0.06,meteohub,2013-05-15 12:24:00,
2013-05-15 08:26:00,57.0,57.0,30.09,WSW,248,3.0,8.0,0,0.02,,,0.06,meteohub,2013-05-15 12:26:00,
2013-05-15 08:28:00,58.1,58.1,30.08,WSW,248,4.0,8.0,0,0.02,,,0.06,meteohub,2013-05-15 12:28:00,
2013-05-15 08:29:00,58.3,58.3,30.08,West,270,11.0,11.0,0,0.02,,,0.06,meteohub,2013-05-15 12:29:00,
2013-05-15 08:31:00,58.5,58.5,30.08,WSW,248,8.0,11.0,0,0.02,,,0.06,meteohub,2013-05-15 12:31:00,
2013-05-15 08:34:00,59.0,59.0,30.08,South,180,2.0,11.0,0,0.02,,,0.06,meteohub,2013-05-15 12:34:00,
2013-05-15 08:35:00,59.7,59.7,30.08,NE,45,3.0,11.0,0,0.02,,,0.06,meteohub,2013-05-15 12:35:00,
2013-05-15 08:37:00,59.9,59.9,30.08,South,180,7.0,11.0,0,0.02,,,0.06,meteohub,2013-05-15 12:37:00,
2013-05-15 08:38:00,60.1,60.1,30.08,East,90,4.0,11.0,0,0.02,,,0.06,meteohub,2013-05-15 12:38:00,
2013-05-15 08:39:00,60.3,60.3,30.07,South,180,4.0,11.0,0,0.02,,,0.06,meteohub,2013-05-15 12:39:00,
2013-05-15 08:40:00,60.3,60.3,30.07,South,180,10.0,11.0,0,0.02,,,0.06,meteohub,2013-05-15 12:40:00,
2013-05-15 08:42:00,60.3,60.3,30.07,West,270,6.0,11.0,0,0.02,,,0.06,meteohub,2013-05-15 12:42:00,
2013-05-15 08:43:00,60.3,60.3,30.07,South,180,6.0,11.0,0,0.02,,,0.06,meteohub,2013-05-15 12:43:00,
2013-05-15 08:45:00,60.3,60.3,30.06,West,270,5.0,11.0,0,0.02,,,0.06,meteohub,2013-05-15 12:45:00,
2013-05-15 08:47:00,60.6,60.6,30.06,WSW,248,6.0,10.0,0,0.02,,,0.06,meteohub,2013-05-15 12:47:00,
2013-05-15 08:49:00,60.8,60.8,30.06,SE,135,6.0,10.0,0,0.02,,,0.06,meteohub,2013-05-15 12:49:00,
2013-05-15 08:51:00,61.2,61.2,30.06,WSW,248,4.0,10.0,0,0.01,,,0.06,meteohub,2013-05-15 12:51:00,
2013-05-15 08:52:00,61.3,61.3,30.06,SE,135,3.0,10.0,0,0.01,,,0.06,meteohub,2013-05-15 12:52:00,
2013-05-15 08:55:00,61.3,61.3,30.06,SSE,158,5.0,10.0,0,0.01,,,0.06,meteohub,2013-05-15 12:55:00,
2013-05-15 08:56:00,61.3,61.3,30.06,South,180,7.0,10.0,0,0.00,,,0.06,meteohub,2013-05-15 12:56:00,
2013-05-15 09:01:00,61.0,61.0,30.05,South,180,7.0,10.0,0,0.00,,,0.06,meteohub,2013-05-15 13:01:00,
2013-05-15 09:02:00,61.5,61.5,30.05,South,180,12.0,12.0,0,0.00,,,0.06,meteohub,2013-05-15 13:02:00,
2013-05-15 09:06:00,62.4,62.4,30.04,WSW,248,10.0,12.0,0,0.00,,,0.06,meteohub,2013-05-15 13:06:00,
2013-05-15 09:07:00,62.6,62.6,30.04,South,180,9.0,12.0,0,0.00,,,0.06,meteohub,2013-05-15 13:07:00,
2013-05-15 09:12:00,62.4,62.4,30.04,NW,315,5.0,12.0,0,0.00,,,0.06,meteohub,2013-05-15 13:12:00,
2013-05-15 09:16:00,62.1,62.1,30.04,WSW,248,11.0,12.0,0,0.00,,,0.06,meteohub,2013-05-15 13:16:00,
2013-05-15 09:18:00,61.7,61.7,30.05,South,180,6.0,12.0,0,0.00,,,0.06,meteohub,2013-05-15 13:18:00,
2013-05-15 09:21:00,61.7,61.7,30.06,WSW,248,7.0,12.0,0,0.00,,,0.06,meteohub,2013-05-15 13:21:00,
2013-05-15 09:23:00,62.2,62.2,30.06,WSW,248,4.0,12.0,0,0.00,,,0.06,meteohub,2013-05-15 13:23:00,
2013-05-15 09:24:00,62.2,62.2,30.06,South,180,12.0,12.0,0,0.00,,,0.06,meteohub,2013-05-15 13:24:00,
2013-05-15 09:26:00,62.8,62.8,30.06,SE,135,7.0,12.0,0,0.00,,,0.06,meteohub,2013-05-15 13:26:00,
2013-05-15 09:27:00,63.0,63.0,30.06,West,270,6.0,12.0,0,0.00,,,0.06,meteohub,2013-05-15 13:27:00,
2013-05-15 09:30:00,64.2,64.2,30.05,SE,135,8.0,12.0,0,0.00,,,0.06,meteohub,2013-05-15 13:30:00,
2013-05-15 09:31:00,64.8,64.8,30.05,WSW,248,7.0,12.0,0,0.00,,,0.06,meteohub,2013-05-15 13:31:00,
2013-05-15 09:33:00,64.8,64.8,30.05,WSW,248,7.0,12.0,0,0.00,,,0.06,meteohub,2013-05-15 13:33:00,
2013-05-15 09:35:00,65.8,65.8,30.04,East,90,8.0,12.0,0,0.00,,,0.06,meteohub,2013-05-15 13:35:00,
2013-05-15 09:36:00,66.0,66.0,30.04,WSW,248,8.0,12.0,0,0.00,,,0.06,meteohub,2013-05-15 13:36:00,
2013-05-15 09:38:00,66.4,66.4,30.03,South,180,7.0,12.0,0,0.00,,,0.06,meteohub,2013-05-15 13:38:00,
2013-05-15 09:39:00,66.4,66.4,30.03,WSW,248,17.0,17.0,0,0.00,,,0.06,meteohub,2013-05-15 13:39:00,
2013-05-15 09:41:00,66.2,66.2,30.03,WSW,248,6.0,20.0,0,0.00,,,0.06,meteohub,2013-05-15 13:41:00,
2013-05-15 09:42:00,66.2,66.2,30.03,SE,135,9.0,20.0,0,0.00,,,0.06,meteohub,2013-05-15 13:42:00,
2013-05-15 09:44:00,66.2,66.2,30.03,South,180,8.0,20.0,0,0.00,,,0.06,meteohub,2013-05-15 13:44:00,
2013-05-15 09:47:00,66.7,66.7,30.03,WSW,248,14.0,20.0,0,0.00,,,0.06,meteohub,2013-05-15 13:47:00,
2013-05-15 09:48:00,66.9,66.9,30.03,WSW,248,8.0,20.0,0,0.00,,,0.06,meteohub,2013-05-15 13:48:00,
2013-05-15 09:49:00,67.1,67.1,30.04,South,180,8.0,20.0,0,0.00,,,0.06,meteohub,2013-05-15 13:49:00,
2013-05-15 09:52:00,67.8,67.8,30.05,NW,315,5.0,17.0,0,0.00,,,0.06,meteohub,2013-05-15 13:52:00,
2013-05-15 09:53:00,68.2,68.2,30.06,West,270,5.0,17.0,0,0.00,,,0.06,meteohub,2013-05-15 13:53:00,
2013-05-15 09:55:00,68.5,68.5,30.06,WSW,248,8.0,14.0,0,0.00,,,0.06,meteohub,2013-05-15 13:55:00,
2013-05-15 09:56:00,68.5,68.5,30.06,South,180,10.0,14.0,0,0.00,,,0.06,meteohub,2013-05-15 13:56:00,
2013-05-15 09:57:00,68.9,68.9,30.05,South,180,9.0,14.0,0,0.00,,,0.06,meteohub,2013-05-15 13:57:00,
2013-05-15 10:00:00,68.7,68.7,30.04,WSW,248,9.0,14.0,0,0.00,,,0.06,meteohub,2013-05-15 14:00:00,
2013-05-15 10:02:00,68.4,68.4,30.04,NE,45,6.0,14.0,0,0.00,,,0.06,meteohub,2013-05-15 14:02:00,
2013-05-15 10:03:00,68.2,68.2,30.04,WSW,248,5.0,14.0,0,0.00,,,0.06,meteohub,2013-05-15 14:03:00,
2013-05-15 10:06:00,68.5,68.5,30.04,SE,135,7.0,13.0,0,0.00,,,0.06,meteohub,2013-05-15 14:06:00,
2013-05-15 10:07:00,68.7,68.7,30.05,West,270,4.0,13.0,0,0.00,,,0.06,meteohub,2013-05-15 14:07:00,
2013-05-15 10:08:00,68.9,68.9,30.05,NNW,338,9.0,13.0,0,0.00,,,0.06,meteohub,2013-05-15 14:08:00,
2013-05-15 10:09:00,69.3,69.3,30.05,WSW,248,5.0,13.0,0,0.00,,,0.06,meteohub,2013-05-15 14:09:00,
2013-05-15 10:11:00,70.0,70.0,30.06,WSW,248,4.0,13.0,0,0.00,,,0.06,meteohub,2013-05-15 14:11:00,
2013-05-15 10:13:00,70.2,70.2,30.06,WSW,248,8.0,13.0,0,0.00,,,0.06,meteohub,2013-05-15 14:13:00,
2013-05-15 10:16:00,70.9,70.9,30.06,WSW,248,7.0,12.0,0,0.00,,,0.06,meteohub,2013-05-15 14:16:00,
2013-05-15 10:17:00,70.9,70.9,30.05,South,180,9.0,12.0,0,0.00,,,0.06,meteohub,2013-05-15 14:17:00,
2013-05-15 10:18:00,70.9,70.9,30.05,South,180,9.0,12.0,0,0.00,,,0.06,meteohub,2013-05-15 14:18:00,
2013-05-15 10:19:00,70.9,70.9,30.05,WSW,248,6.0,12.0,0,0.00,,,0.06,meteohub,2013-05-15 14:19:00,
2013-05-15 10:22:00,71.1,71.1,30.05,NW,315,4.0,10.0,0,0.00,,,0.06,meteohub,2013-05-15 14:22:00,
2013-05-15 10:24:00,71.4,71.4,30.05,WSW,248,4.0,10.0,0,0.00,,,0.06,meteohub,2013-05-15 14:24:00,
2013-05-15 10:25:00,72.0,72.0,30.04,North,0,2.0,10.0,0,0.00,,,0.06,meteohub,2013-05-15 14:25:00,
2013-05-15 10:27:00,72.5,72.5,30.04,West,270,2.0,10.0,0,0.00,,,0.06,meteohub,2013-05-15 14:27:00,
2013-05-15 10:28:00,73.0,73.0,30.04,West,270,5.0,10.0,0,0.00,,,0.06,meteohub,2013-05-15 14:28:00,
2013-05-15 10:29:00,73.0,73.0,30.04,WSW,248,6.0,10.0,0,0.00,,,0.06,meteohub,2013-05-15 14:29:00,
2013-05-15 10:30:00,73.2,73.2,30.04,WSW,248,5.0,10.0,0,0.00,,,0.06,meteohub,2013-05-15 14:30:00,
2013-05-15 10:33:00,73.4,73.4,30.04,West,270,5.0,10.0,0,0.00,,,0.06,meteohub,2013-05-15 14:33:00,
2013-05-15 10:34:00,73.6,73.6,30.04,NW,315,4.0,10.0,0,0.00,,,0.06,meteohub,2013-05-15 14:34:00,
2013-05-15 10:35:00,73.6,73.6,30.04,WSW,248,3.0,10.0,0,0.00,,,0.06,meteohub,2013-05-15 14:35:00,
2013-05-15 10:39:00,73.8,73.8,30.05,WSW,248,3.0,8.0,0,0.00,,,0.06,meteohub,2013-05-15 14:39:00,
2013-05-15 10:40:00,73.8,73.8,30.05,WSW,248,3.0,8.0,0,0.00,,,0.06,meteohub,2013-05-15 14:40:00,
2013-05-15 10:41:00,73.9,73.9,30.05,WSW,248,8.0,11.0,0,0.00,,,0.06,meteohub,2013-05-15 14:41:00,
2013-05-15 10:42:00,74.1,74.1,30.05,SE,135,6.0,11.0,0,0.00,,,0.06,meteohub,2013-05-15 14:42:00,
2013-05-15 10:45:00,74.3,74.3,30.04,West,270,11.0,11.0,0,0.00,,,0.06,meteohub,2013-05-15 14:45:00,
2013-05-15 10:46:00,74.3,74.3,30.04,West,270,11.0,11.0,0,0.00,,,0.06,meteohub,2013-05-15 14:46:00,
2013-05-15 10:47:00,74.3,74.3,30.04,South,180,11.0,11.0,0,0.00,,,0.06,meteohub,2013-05-15 14:47:00,
2013-05-15 10:50:00,74.7,74.7,30.04,South,180,8.0,11.0,0,0.00,,,0.06,meteohub,2013-05-15 14:50:00,
2013-05-15 10:51:00,74.7,74.7,30.04,West,270,11.0,11.0,0,0.00,,,0.06,meteohub,2013-05-15 14:51:00,
2013-05-15 10:52:00,74.7,74.7,30.04,SE,135,8.0,11.0,0,0.00,,,0.06,meteohub,2013-05-15 14:52:00,
2013-05-15 10:53:00,74.5,74.5,30.04,WSW,248,11.0,11.0,0,0.00,,,0.06,meteohub,2013-05-15 14:53:00,
2013-05-15 10:55:00,74.1,74.1,30.04,South,180,13.0,13.0,0,0.00,,,0.06,meteohub,2013-05-15 14:55:00,
2013-05-15 10:57:00,73.8,73.8,30.04,South,180,9.0,11.0,0,0.00,,,0.06,meteohub,2013-05-15 14:57:00,
2013-05-15 10:59:00,73.2,73.2,30.05,WSW,248,5.0,11.0,0,0.00,,,0.06,meteohub,2013-05-15 14:59:00,
2013-05-15 11:02:00,73.0,73.0,30.05,South,180,9.0,13.0,0,0.00,,,0.06,meteohub,2013-05-15 15:02:00,
2013-05-15 11:04:00,73.0,73.0,30.05,South,180,9.0,13.0,0,0.00,,,0.06,meteohub,2013-05-15 15:04:00,
2013-05-15 11:05:00,72.3,72.3,30.06,WSW,248,15.0,15.0,0,0.00,,,0.06,meteohub,2013-05-15 15:05:00,
2013-05-15 11:07:00,71.6,71.6,30.06,North,0,9.0,21.0,0,0.00,,,0.06,meteohub,2013-05-15 15:07:00,
2013-05-15 11:10:00,71.4,71.4,30.06,WSW,248,7.0,21.0,0,0.00,,,0.06,meteohub,2013-05-15 15:10:00,
2013-05-15 11:12:00,71.2,71.2,30.06,NE,45,8.0,21.0,0,0.00,,,0.06,meteohub,2013-05-15 15:12:00,
2013-05-15 11:13:00,71.1,71.1,30.06,SE,135,7.0,21.0,0,0.00,,,0.06,meteohub,2013-05-15 15:13:00,
2013-05-15 11:14:00,71.1,71.1,30.06,SE,135,8.0,21.0,0,0.00,,,0.06,meteohub,2013-05-15 15:14:00,
2013-05-15 11:16:00,71.1,71.1,30.06,West,270,8.0,21.0,0,0.00,,,0.06,meteohub,2013-05-15 15:16:00,
2013-05-15 11:17:00,71.1,71.1,30.06,South,180,10.0,21.0,0,0.00,,,0.06,meteohub,2013-05-15 15:17:00,
2013-05-15 11:20:00,71.1,71.1,30.07,South,180,10.0,21.0,0,0.00,,,0.06,meteohub,2013-05-15 15:20:00,
2013-05-15 11:21:00,70.9,70.9,30.07,WSW,248,14.0,21.0,0,0.00,,,0.06,meteohub,2013-05-15 15:21:00,
2013-05-15 11:24:00,70.9,70.9,30.07,North,0,5.0,21.0,0,0.00,,,0.06,meteohub,2013-05-15 15:24:00,
2013-05-15 11:26:00,70.7,70.7,30.07,South,180,3.0,14.0,0,0.00,,,0.06,meteohub,2013-05-15 15:26:00,
2013-05-15 11:27:00,70.9,70.9,30.08,WSW,248,6.0,14.0,0,0.00,,,0.06,meteohub,2013-05-15 15:27:00,
2013-05-15 11:29:00,70.9,70.9,30.09,WSW,248,5.0,14.0,0,0.00,,,0.06,meteohub,2013-05-15 15:29:00,
2013-05-15 11:31:00,70.9,70.9,30.09,West,270,8.0,14.0,0,0.00,,,0.06,meteohub,2013-05-15 15:31:00,
2013-05-15 11:32:00,70.9,70.9,30.09,WSW,248,7.0,14.0,0,0.00,,,0.06,meteohub,2013-05-15 15:32:00,
2013-05-15 11:34:00,70.9,70.9,30.09,South,180,8.0,14.0,0,0.00,,,0.06,meteohub,2013-05-15 15:34:00,
2013-05-15 11:36:00,70.9,70.9,30.08,South,180,6.0,14.0,0,0.00,,,0.06,meteohub,2013-05-15 15:36:00,
2013-05-15 11:37:00,70.7,70.7,30.08,West,270,4.0,14.0,0,0.00,,,0.06,meteohub,2013-05-15 15:37:00,
2013-05-15 11:39:00,70.9,70.9,30.08,NW,315,6.0,14.0,0,0.00,,,0.06,meteohub,2013-05-15 15:39:00,
2013-05-15 11:41:00,70.9,70.9,30.09,WSW,248,3.0,11.0,0,0.00,,,0.06,meteohub,2013-05-15 15:41:00,
2013-05-15 11:42:00,70.9,70.9,30.08,West,270,9.0,11.0,0,0.00,,,0.06,meteohub,2013-05-15 15:42:00,
2013-05-15 11:45:00,70.9,70.9,30.09,WNW,293,12.0,12.0,0,0.00,,,0.06,meteohub,2013-05-15 15:45:00,
2013-05-15 11:47:00,70.9,70.9,30.10,SE,135,15.0,15.0,0,0.00,,,0.06,meteohub,2013-05-15 15:47:00,
2013-05-15 11:51:00,70.9,70.9,30.09,West,270,4.0,15.0,0,0.00,,,0.06,meteohub,2013-05-15 15:51:00,
2013-05-15 11:52:00,70.9,70.9,30.08,West,270,4.0,15.0,0,0.00,,,0.06,meteohub,2013-05-15 15:52:00,
2013-05-15 11:53:00,70.9,70.9,30.08,West,270,4.0,15.0,0,0.00,,,0.06,meteohub,2013-05-15 15:53:00,
2013-05-15 11:58:00,71.2,71.2,30.06,South,180,4.0,15.0,0,0.00,,,0.06,meteohub,2013-05-15 15:58:00,
2013-05-15 11:59:00,71.4,71.4,30.06,SE,135,11.0,15.0,0,0.00,,,0.06,meteohub,2013-05-15 15:59:00,
2013-05-15 12:03:00,71.1,71.1,30.09,NW,315,9.0,15.0,0,0.00,,,0.06,meteohub,2013-05-15 16:03:00,
2013-05-15 12:04:00,71.1,71.1,30.09,South,180,10.0,15.0,0,0.00,,,0.06,meteohub,2013-05-15 16:04:00,
2013-05-15 12:05:00,70.9,70.9,30.09,South,180,10.0,11.0,0,0.00,,,0.06,meteohub,2013-05-15 16:05:00,
2013-05-15 12:10:00,70.0,70.0,30.09,West,270,5.0,11.0,0,0.00,,,0.06,meteohub,2013-05-15 16:10:00,
2013-05-15 12:11:00,69.8,69.8,30.09,West,270,6.0,11.0,0,0.00,,,0.06,meteohub,2013-05-15 16:11:00,
2013-05-15 12:16:00,69.1,69.1,30.08,ESE,113,8.0,11.0,0,0.00,,,0.06,meteohub,2013-05-15 16:16:00,
2013-05-15 12:22:00,68.4,68.4,30.09,South,180,8.0,15.0,0,0.00,,,0.06,meteohub,2013-05-15 16:22:00,
2013-05-15 12:23:00,68.0,68.0,30.07,WSW,248,8.0,15.0,0,0.00,,,0.06,meteohub,2013-05-15 16:23:00,
2013-05-15 12:27:00,67.8,67.8,30.06,WSW,248,3.0,15.0,0,0.00,,,0.06,meteohub,2013-05-15 16:27:00,
2013-05-15 12:29:00,67.6,67.6,30.06,South,180,6.0,15.0,0,0.00,,,0.06,meteohub,2013-05-15 16:29:00,
2013-05-15 12:30:00,67.6,67.6,30.06,South,180,6.0,15.0,0,0.00,,,0.06,meteohub,2013-05-15 16:30:00,
2013-05-15 12:33:00,67.6,67.6,30.06,WSW,248,3.0,15.0,0,0.00,,,0.06,meteohub,2013-05-15 16:33:00,
2013-05-15 12:37:00,67.6,67.6,30.04,SE,135,2.0,10.0,0,0.00,,,0.06,meteohub,2013-05-15 16:37:00,
2013-05-15 12:38:00,67.6,67.6,30.04,WSW,248,6.0,10.0,0,0.00,,,0.06,meteohub,2013-05-15 16:38:00,
2013-05-15 12:39:00,67.6,67.6,30.04,WSW,248,6.0,10.0,0,0.00,,,0.06,meteohub,2013-05-15 16:39:00,
2013-05-15 12:41:00,67.6,67.6,30.03,South,180,8.0,10.0,0,0.00,,,0.06,meteohub,2013-05-15 16:41:00,
2013-05-15 12:43:00,67.6,67.6,30.03,WSW,248,6.0,10.0,0,0.00,,,0.06,meteohub,2013-05-15 16:43:00,
2013-05-15 12:45:00,67.6,67.6,30.03,East,90,5.0,10.0,0,0.00,,,0.06,meteohub,2013-05-15 16:45:00,
2013-05-15 12:47:00,67.6,67.6,30.03,WSW,248,10.0,10.0,0,0.00,,,0.06,meteohub,2013-05-15 16:47:00,
2013-05-15 12:48:00,67.6,67.6,30.01,SE,135,11.0,11.0,0,0.00,,,0.06,meteohub,2013-05-15 16:48:00,
2013-05-15 12:50:00,67.6,67.6,30.01,SE,135,11.0,15.0,0,0.00,,,0.06,meteohub,2013-05-15 16:50:00,
2013-05-15 12:51:00,67.6,67.6,30.00,SE,135,11.0,15.0,0,0.00,,,0.06,meteohub,2013-05-15 16:51:00,
2013-05-15 12:53:00,67.6,67.6,30.00,SE,135,11.0,15.0,0,0.00,,,0.06,meteohub,2013-05-15 16:53:00,
2013-05-15 12:56:00,68.2,68.2,30.01,WSW,248,7.0,15.0,0,0.00,,,0.06,meteohub,2013-05-15 16:56:00,
2013-05-15 12:57:00,68.2,68.2,30.01,East,90,7.0,15.0,0,0.00,,,0.06,meteohub,2013-05-15 16:57:00,
2013-05-15 12:59:00,68.4,68.4,30.01,WSW,248,7.0,15.0,0,0.00,,,0.06,meteohub,2013-05-15 16:59:00,
2013-05-15 13:01:00,68.4,68.4,29.99,WSW,248,7.0,15.0,0,0.00,,,0.06,meteohub,2013-05-15 17:01:00,
2013-05-15 13:03:00,68.4,68.4,30.00,WSW,248,7.0,15.0,0,0.00,,,0.06,meteohub,2013-05-15 17:03:00,
2013-05-15 13:04:00,68.4,68.4,30.01,WSW,248,7.0,15.0,0,0.00,,,0.06,meteohub,2013-05-15 17:04:00,
2013-05-15 13:06:00,68.4,68.4,30.02,WSW,248,7.0,11.0,0,0.00,,,0.06,meteohub,2013-05-15 17:06:00,
2013-05-15 13:08:00,68.2,68.2,30.02,WSW,248,8.0,11.0,0,0.00,,,0.06,meteohub,2013-05-15 17:08:00,
2013-05-15 13:09:00,68.2,68.2,30.02,WSW,248,8.0,11.0,0,0.00,,,0.06,meteohub,2013-05-15 17:09:00,
2013-05-15 13:10:00,68.2,68.2,30.02,WSW,248,8.0,11.0,0,0.00,,,0.06,meteohub,2013-05-15 17:10:00,
2013-05-15 13:12:00,68.4,68.4,30.03,WSW,248,13.0,13.0,0,0.00,,,0.06,meteohub,2013-05-15 17:12:00,
2013-05-15 13:15:00,68.5,68.5,30.03,West,270,12.0,12.0,0,0.00,,,0.06,meteohub,2013-05-15 17:15:00,
2013-05-15 13:16:00,68.7,68.7,30.02,West,270,11.0,13.0,0,0.00,,,0.06,meteohub,2013-05-15 17:16:00,
2013-05-15 13:17:00,68.7,68.7,30.02,WSW,248,5.0,13.0,0,0.00,,,0.06,meteohub,2013-05-15 17:17:00,
2013-05-15 13:21:00,68.9,68.9,29.99,WSW,248,12.0,13.0,0,0.00,,,0.06,meteohub,2013-05-15 17:21:00,
2013-05-15 13:22:00,68.9,68.9,29.99,SE,135,6.0,13.0,0,0.00,,,0.06,meteohub,2013-05-15 17:22:00,
2013-05-15 13:26:00,69.4,69.4,29.99,South,180,17.0,17.0,0,0.00,,,0.06,meteohub,2013-05-15 17:26:00,
2013-05-15 13:27:00,69.6,69.6,30.00,WSW,248,14.0,14.0,0,0.00,,,0.06,meteohub,2013-05-15 17:27:00,
2013-05-15 13:28:00,69.8,69.8,29.99,NW,315,12.0,13.0,0,0.00,,,0.06,meteohub,2013-05-15 17:28:00,
2013-05-15 13:32:00,70.7,70.7,29.99,South,180,11.0,17.0,0,0.01,,,0.07,meteohub,2013-05-15 17:32:00,
2013-05-15 13:33:00,71.1,71.1,29.99,SE,135,11.0,17.0,0,0.01,,,0.07,meteohub,2013-05-15 17:33:00,
2013-05-15 13:34:00,71.4,71.4,29.99,WSW,248,11.0,17.0,0,0.01,,,0.07,meteohub,2013-05-15 17:34:00,
2013-05-15 13:37:00,72.1,72.1,30.01,WSW,248,11.0,17.0,0,0.01,,,0.07,meteohub,2013-05-15 17:37:00,
2013-05-15 13:38:00,72.5,72.5,30.01,SE,135,10.0,17.0,0,0.01,,,0.07,meteohub,2013-05-15 17:38:00,
2013-05-15 13:41:00,73.6,73.6,30.01,NW,315,8.0,17.0,0,0.01,,,0.07,meteohub,2013-05-15 17:41:00,
2013-05-15 13:44:00,74.7,74.7,30.02,West,270,11.0,17.0,0,0.01,,,0.07,meteohub,2013-05-15 17:44:00,
2013-05-15 13:45:00,75.2,75.2,30.02,WSW,248,9.0,17.0,0,0.01,,,0.07,meteohub,2013-05-15 17:45:00,
2013-05-15 13:46:00,75.6,75.6,30.03,West,270,4.0,15.0,0,0.01,,,0.07,meteohub,2013-05-15 17:46:00,
2013-05-15 13:49:00,75.9,75.9,30.04,WSW,248,11.0,15.0,0,0.01,,,0.07,meteohub,2013-05-15 17:49:00,
2013-05-15 13:51:00,76.1,76.1,30.03,West,270,10.0,15.0,0,0.01,,,0.07,meteohub,2013-05-15 17:51:00,
2013-05-15 13:53:00,76.5,76.5,30.02,West,270,9.0,15.0,0,0.01,,,0.07,meteohub,2013-05-15 17:53:00,
2013-05-15 13:54:00,77.0,77.0,30.02,NW,315,8.0,15.0,0,0.01,,,0.07,meteohub,2013-05-15 17:54:00,
2013-05-15 13:55:00,77.0,77.0,30.02,NW,315,8.0,13.0,0,0.01,,,0.07,meteohub,2013-05-15 17:55:00,
2013-05-15 13:59:00,77.2,77.2,30.03,NW,315,7.0,13.0,0,0.01,,,0.07,meteohub,2013-05-15 17:59:00,
2013-05-15 14:00:00,77.0,77.0,30.03,South,180,8.0,13.0,0,0.01,,,0.07,meteohub,2013-05-15 18:00:00,
2013-05-15 14:01:00,77.0,77.0,30.02,South,180,8.0,15.0,0,0.01,,,0.07,meteohub,2013-05-15 18:01:00,
2013-05-15 14:04:00,77.0,77.0,30.02,South,180,8.0,15.0,0,0.01,,,0.07,meteohub,2013-05-15 18:04:00,
2013-05-15 14:06:00,77.0,77.0,30.02,South,180,8.0,15.0,0,0.01,,,0.07,meteohub,2013-05-15 18:06:00,
2013-05-15 14:07:00,75.0,75.0,30.01,South,180,8.0,15.0,0,0.01,,,0.07,meteohub,2013-05-15 18:07:00,
2013-05-15 14:10:00,74.8,74.8,30.01,NW,315,8.0,15.0,0,0.01,,,0.07,meteohub,2013-05-15 18:10:00,
2013-05-15 14:12:00,75.4,75.4,30.02,NE,45,6.0,15.0,0,0.01,,,0.07,meteohub,2013-05-15 18:12:00,
2013-05-15 14:14:00,75.7,75.7,30.03,NW,315,8.0,15.0,0,0.01,,,0.07,meteohub,2013-05-15 18:14:00,
2013-05-15 14:16:00,75.7,75.7,30.03,West,270,6.0,12.0,0,0.01,,,0.07,meteohub,2013-05-15 18:16:00,
2013-05-15 14:18:00,76.1,76.1,30.03,NW,315,11.0,12.0,0,0.01,,,0.07,meteohub,2013-05-15 18:18:00,
2013-05-15 14:20:00,76.6,76.6,30.02,South,180,13.0,13.0,0,0.01,,,0.07,meteohub,2013-05-15 18:20:00,
2013-05-15 14:21:00,76.8,76.8,30.02,WSW,248,11.0,12.0,0,0.01,,,0.07,meteohub,2013-05-15 18:21:00,
2013-05-15 14:22:00,77.0,77.0,30.01,NW,315,14.0,14.0,0,0.01,,,0.07,meteohub,2013-05-15 18:22:00,
2013-05-15 14:25:00,77.2,77.2,30.02,West,270,13.0,13.0,0,0.01,,,0.07,meteohub,2013-05-15 18:25:00,
2013-05-15 14:26:00,77.5,77.5,30.01,West,270,6.0,14.0,0,0.01,,,0.07,meteohub,2013-05-15 18:26:00,
2013-05-15 14:27:00,77.5,77.5,30.01,West,270,6.0,14.0,0,0.01,,,0.07,meteohub,2013-05-15 18:27:00,
2013-05-15 14:30:00,77.7,77.7,30.00,NW,315,9.0,14.0,0,0.00,,,0.07,meteohub,2013-05-15 18:30:00,
2013-05-15 14:33:00,77.7,77.7,30.00,West,270,4.0,16.0,0,0.00,,,0.07,meteohub,2013-05-15 18:33:00,
2013-05-15 14:35:00,77.7,77.7,30.00,WSW,248,11.0,16.0,0,0.00,,,0.07,meteohub,2013-05-15 18:35:00,
2013-05-15 14:38:00,78.3,78.3,30.00,WSW,248,11.0,16.0,0,0.00,,,0.07,meteohub,2013-05-15 18:38:00,
2013-05-15 14:39:00,78.4,78.4,30.01,WSW,248,7.0,16.0,0,0.00,,,0.07,meteohub,2013-05-15 18:39:00,
2013-05-15 14:41:00,78.8,78.8,30.01,WSW,248,8.0,11.0,0,0.00,,,0.07,meteohub,2013-05-15 18:41:00,
2013-05-15 14:44:00,79.5,79.5,30.01,WSW,248,15.0,15.0,0,0.00,,,0.07,meteohub,2013-05-15 18:44:00,
2013-05-15 14:45:00,79.5,79.5,30.00,SE,135,9.0,15.0,0,0.00,,,0.07,meteohub,2013-05-15 18:45:00,
2013-05-15 14:46:00,79.5,79.5,30.00,SE,135,8.0,15.0,0,0.00,,,0.07,meteohub,2013-05-15 18:46:00,
2013-05-15 14:47:00,79.3,79.3,30.00,South,180,7.0,15.0,0,0.00,,,0.07,meteohub,2013-05-15 18:47:00,
2013-05-15 14:49:00,79.5,79.5,30.00,WSW,248,8.0,15.0,0,0.00,,,0.07,meteohub,2013-05-15 18:49:00,
2013-05-15 14:52:00,79.7,79.7,29.99,WSW,248,9.0,15.0,0,0.00,,,0.07,meteohub,2013-05-15 18:52:00,
2013-05-15 14:53:00,80.1,80.1,29.99,WSW,248,4.0,15.0,0,0.00,,,0.07,meteohub,2013-05-15 18:53:00,
2013-05-15 14:54:00,80.2,80.2,29.99,WSW,248,11.0,15.0,0,0.00,,,0.07,meteohub,2013-05-15 18:54:00,
2013-05-15 14:56:00,81.0,81.0,29.99,WSW,248,8.0,15.0,0,0.00,,,0.07,meteohub,2013-05-15 18:56:00,
2013-05-15 14:57:00,81.1,81.1,30.00,NW,315,9.0,15.0,0,0.00,,,0.07,meteohub,2013-05-15 18:57:00,
2013-05-15 14:58:00,81.1,81.1,30.00,NW,315,9.0,15.0,0,0.00,,,0.07,meteohub,2013-05-15 18:58:00,
2013-05-15 14:59:00,81.1,81.1,30.00,South,180,14.0,15.0,0,0.00,,,0.07,meteohub,2013-05-15 18:59:00,
2013-05-15 15:02:00,81.1,81.1,29.99,South,180,14.0,15.0,0,0.00,,,0.07,meteohub,2013-05-15 19:02:00,
2013-05-15 15:03:00,81.1,81.1,29.99,South,180,14.0,15.0,0,0.00,,,0.07,meteohub,2013-05-15 19:03:00,
2013-05-15 15:05:00,81.1,81.1,29.99,South,180,14.0,15.0,0,0.00,,,0.07,meteohub,2013-05-15 19:05:00,
2013-05-15 15:06:00,81.1,81.1,29.99,South,180,14.0,15.0,0,0.00,,,0.07,meteohub,2013-05-15 19:06:00,
2013-05-15 15:08:00,79.5,79.5,29.99,WSW,248,9.0,15.0,0,0.00,,,0.07,meteohub,2013-05-15 19:08:00,
2013-05-15 15:10:00,80.2,80.2,29.99,North,0,5.0,15.0,0,0.00,,,0.07,meteohub,2013-05-15 19:10:00,
2013-05-15 15:11:00,80.6,80.6,29.99,NW,315,4.0,15.0,0,0.00,,,0.07,meteohub,2013-05-15 19:11:00,
2013-05-15 15:13:00,81.7,81.7,29.99,NW,315,4.0,15.0,0,0.00,,,0.07,meteohub,2013-05-15 19:13:00,
2013-05-15 15:14:00,82.0,82.0,29.99,WSW,248,11.0,15.0,0,0.00,,,0.07,meteohub,2013-05-15 19:14:00,
2013-05-15 15:15:00,81.9,81.9,29.99,WSW,248,14.0,14.0,0,0.00,,,0.07,meteohub,2013-05-15 19:15:00,
2013-05-15 15:16:00,81.9,81.9,29.99,WSW,248,14.0,14.0,0,0.00,,,0.07,meteohub,2013-05-15 19:16:00,
2013-05-15 15:19:00,82.2,82.2,29.99,WNW,293,7.0,14.0,0,0.00,,,0.07,meteohub,2013-05-15 19:19:00,
2013-05-15 15:20:00,82.2,82.2,29.99,WSW,248,17.0,17.0,0,0.00,,,0.07,meteohub,2013-05-15 19:20:00,
2013-05-15 15:22:00,81.7,81.7,29.99,WSW,248,7.0,15.0,0,0.00,,,0.07,meteohub,2013-05-15 19:22:00,
2013-05-15 15:24:00,81.1,81.1,29.99,WSW,248,15.0,15.0,0,0.00,,,0.07,meteohub,2013-05-15 19:24:00,
2013-05-15 15:26:00,81.3,81.3,29.98,North,0,14.0,17.0,0,0.00,,,0.07,meteohub,2013-05-15 19:26:00,
2013-05-15 15:29:00,82.0,82.0,29.98,WSW,248,3.0,17.0,0,0.00,,,0.07,meteohub,2013-05-15 19:29:00,
2013-05-15 15:30:00,82.4,82.4,29.98,WNW,293,11.0,17.0,0,0.00,,,0.07,meteohub,2013-05-15 19:30:00,
2013-05-15 15:32:00,82.9,82.9,29.98,NW,315,10.0,17.0,0,0.00,,,0.07,meteohub,2013-05-15 19:32:00,
2013-05-15 15:35:00,83.3,83.3,29.98,South,180,11.0,17.0,0,0.00,,,0.07,meteohub,2013-05-15 19:35:00,
2013-05-15 15:36:00,83.3,83.3,29.98,South,180,11.0,17.0,0,0.00,,,0.07,meteohub,2013-05-15 19:36:00,
2013-05-15 15:38:00,83.5,83.5,29.98,South,180,7.0,17.0,0,0.00,,,0.07,meteohub,2013-05-15 19:38:00,
2013-05-15 15:39:00,83.7,83.7,29.98,SE,135,7.0,17.0,0,0.00,,,0.07,meteohub,2013-05-15 19:39:00,
2013-05-15 15:41:00,84.0,84.0,29.98,South,180,14.0,14.0,0,0.00,,,0.07,meteohub,2013-05-15 19:41:00,
2013-05-15 15:42:00,84.0,84.0,29.98,WNW,293,10.0,14.0,0,0.00,,,0.07,meteohub,2013-05-15 19:42:00,
2013-05-15 15:43:00,84.0,84.0,29.98,South,180,8.0,14.0,0,0.00,,,0.07,meteohub,2013-05-15 19:43:00,
2013-05-15 15:44:00,84.0,84.0,29.99,West,270,8.0,14.0,0,0.00,,,0.07,meteohub,2013-05-15 19:44:00,
2013-05-15 15:47:00,83.5,83.5,29.98,West,270,16.0,16.0,0,0.00,,,0.07,meteohub,2013-05-15 19:47:00,
2013-05-15 15:48:00,83.5,83.5,29.98,West,270,18.0,18.0,0,0.00,,,0.07,meteohub,2013-05-15 19:48:00,
2013-05-15 15:49:00,83.3,83.3,29.98,NW,315,14.0,14.0,0,0.00,,,0.07,meteohub,2013-05-15 19:49:00,
2013-05-15 15:50:00,83.3,83.3,29.98,NW,315,11.0,18.0,0,0.00,,,0.07,meteohub,2013-05-15 19:50:00,
2013-05-15 15:52:00,83.5,83.5,29.99,NW,315,13.0,18.0,0,0.00,,,0.07,meteohub,2013-05-15 19:52:00,
2013-05-15 15:53:00,83.5,83.5,29.98,South,180,18.0,18.0,0,0.00,,,0.07,meteohub,2013-05-15 19:53:00,
2013-05-15 15:54:00,83.5,83.5,29.98,ESE,113,21.0,21.0,0,0.00,,,0.07,meteohub,2013-05-15 19:54:00,
2013-05-15 15:55:00,83.3,83.3,29.98,NE,45,11.0,21.0,0,0.00,,,0.07,meteohub,2013-05-15 19:55:00,
2013-05-15 15:58:00,83.3,83.3,29.98,West,270,14.0,21.0,0,0.00,,,0.07,meteohub,2013-05-15 19:58:00,
2013-05-15 15:59:00,83.3,83.3,29.98,NW,315,17.0,21.0,0,0.00,,,0.07,meteohub,2013-05-15 19:59:00,
2013-05-15 16:02:00,83.3,83.3,29.98,WSW,248,11.0,22.0,0,0.00,,,0.07,meteohub,2013-05-15 20:02:00,
2013-05-15 16:03:00,83.3,83.3,29.98,WSW,248,11.0,22.0,0,0.00,,,0.07,meteohub,2013-05-15 20:03:00,
2013-05-15 16:04:00,83.3,83.3,29.98,WSW,248,11.0,22.0,0,0.00,,,0.07,meteohub,2013-05-15 20:04:00,
2013-05-15 16:05:00,83.3,83.3,29.98,WSW,248,11.0,22.0,0,0.00,,,0.07,meteohub,2013-05-15 20:05:00,
2013-05-15 16:07:00,83.3,83.3,29.98,WSW,248,11.0,22.0,0,0.00,,,0.07,meteohub,2013-05-15 20:07:00,
2013-05-15 16:09:00,84.0,84.0,29.98,WSW,248,11.0,22.0,0,0.00,,,0.07,meteohub,2013-05-15 20:09:00,
2013-05-15 16:12:00,84.0,84.0,29.98,WSW,248,18.0,22.0,0,0.00,,,0.07,meteohub,2013-05-15 20:12:00,
2013-05-15 16:13:00,84.0,84.0,29.98,WSW,248,18.0,22.0,0,0.00,,,0.07,meteohub,2013-05-15 20:13:00,
2013-05-15 16:15:00,83.8,83.8,29.98,North,0,8.0,18.0,0,0.00,,,0.07,meteohub,2013-05-15 20:15:00,
2013-05-15 16:18:00,83.7,83.7,29.98,South,180,6.0,18.0,0,0.00,,,0.07,meteohub,2013-05-15 20:18:00,
2013-05-15 16:19:00,83.5,83.5,29.98,NW,315,7.0,18.0,0,0.00,,,0.07,meteohub,2013-05-15 20:19:00,
2013-05-15 16:20:00,83.5,83.5,29.98,NW,315,8.0,18.0,0,0.00,,,0.07,meteohub,2013-05-15 20:20:00,
2013-05-15 16:24:00,84.0,84.0,29.98,West,270,9.0,18.0,0,0.00,,,0.07,meteohub,2013-05-15 20:24:00,
2013-05-15 16:26:00,84.0,84.0,29.98,NE,45,4.0,18.0,0,0.00,,,0.07,meteohub,2013-05-15 20:26:00,
2013-05-15 16:29:00,84.0,84.0,29.98,WSW,248,11.0,18.0,0,0.00,,,0.07,meteohub,2013-05-15 20:29:00,
2013-05-15 16:30:00,83.8,83.8,29.98,WSW,248,8.0,18.0,0,0.00,,,0.07,meteohub,2013-05-15 20:30:00,
2013-05-15 16:31:00,83.3,83.3,29.98,WSW,248,17.0,17.0,0,0.00,,,0.07,meteohub,2013-05-15 20:31:00,
2013-05-15 16:34:00,82.6,82.6,29.98,WSW,248,8.0,15.0,0,0.00,,,0.07,meteohub,2013-05-15 20:34:00,
2013-05-15 16:35:00,82.6,82.6,29.98,West,270,9.0,17.0,0,0.00,,,0.07,meteohub,2013-05-15 20:35:00,
2013-05-15 16:38:00,83.1,83.1,29.98,NW,315,8.0,17.0,0,0.00,,,0.07,meteohub,2013-05-15 20:38:00,
2013-05-15 16:40:00,82.8,82.8,29.98,West,270,13.0,17.0,0,0.00,,,0.07,meteohub,2013-05-15 20:40:00,
2013-05-15 16:41:00,82.6,82.6,29.98,WSW,248,14.0,17.0,0,0.00,,,0.07,meteohub,2013-05-15 20:41:00,
2013-05-15 16:45:00,82.2,82.2,29.98,WSW,248,3.0,17.0,0,0.00,,,0.07,meteohub,2013-05-15 20:45:00,
2013-05-15 16:46:00,82.2,82.2,29.98,WSW,248,3.0,19.0,0,0.00,,,0.07,meteohub,2013-05-15 20:46:00,
2013-05-15 16:50:00,81.7,81.7,29.98,NW,315,8.0,19.0,0,0.00,,,0.07,meteohub,2013-05-15 20:50:00,
2013-05-15 16:52:00,81.7,81.7,29.97,WSW,248,12.0,19.0,0,0.00,,,0.07,meteohub,2013-05-15 20:52:00,
2013-05-15 16:55:00,81.5,81.5,29.97,WSW,248,4.0,19.0,0,0.00,,,0.07,meteohub,2013-05-15 20:55:00,
2013-05-15 16:56:00,81.3,81.3,29.97,West,270,13.0,14.0,0,0.00,,,0.07,meteohub,2013-05-15 20:56:00,
2013-05-15 16:57:00,81.3,81.3,29.97,WSW,248,7.0,14.0,0,0.00,,,0.07,meteohub,2013-05-15 20:57:00,
2013-05-15 16:59:00,81.1,81.1,29.98,South,180,5.0,14.0,0,0.00,,,0.07,meteohub,2013-05-15 20:59:00,
2013-05-15 17:00:00,81.1,81.1,29.98,WSW,248,8.0,14.0,0,0.00,,,0.07,meteohub,2013-05-15 21:00:00,
2013-05-15 17:02:00,81.1,81.1,29.98,WSW,248,8.0,14.0,0,0.00,,,0.07,meteohub,2013-05-15 21:02:00,
2013-05-15 17:03:00,81.1,81.1,29.98,WSW,248,8.0,14.0,0,0.00,,,0.07,meteohub,2013-05-15 21:03:00,
2013-05-15 17:04:00,81.1,81.1,29.97,WSW,248,8.0,14.0,0,0.00,,,0.07,meteohub,2013-05-15 21:04:00,
2013-05-15 17:05:00,81.1,81.1,29.98,WSW,248,8.0,14.0,0,0.00,,,0.07,meteohub,2013-05-15 21:05:00,
2013-05-15 17:08:00,82.0,82.0,29.98,South,180,11.0,14.0,0,0.00,,,0.07,meteohub,2013-05-15 21:08:00,
2013-05-15 17:09:00,81.9,81.9,29.98,West,270,6.0,14.0,0,0.00,,,0.07,meteohub,2013-05-15 21:09:00,
2013-05-15 17:11:00,81.9,81.9,29.98,SE,135,3.0,13.0,0,0.02,,,0.09,meteohub,2013-05-15 21:11:00,
2013-05-15 17:13:00,82.0,82.0,29.98,South,180,3.0,13.0,0,0.02,,,0.09,meteohub,2013-05-15 21:13:00,
2013-05-15 17:15:00,82.9,82.9,29.97,West,270,10.0,13.0,0,0.05,,,0.12,meteohub,2013-05-15 21:15:00,
2013-05-15 17:16:00,83.3,83.3,29.98,West,270,10.0,15.0,0,0.05,,,0.12,meteohub,2013-05-15 21:16:00,
2013-05-15 17:17:00,83.5,83.5,29.96,West,270,17.0,17.0,0,0.05,,,0.12,meteohub,2013-05-15 21:17:00,
2013-05-15 17:18:00,83.7,83.7,29.97,WSW,248,6.0,15.0,0,0.05,,,0.12,meteohub,2013-05-15 21:18:00,
2013-05-15 17:21:00,84.0,84.0,29.97,SE,135,2.0,23.0,0,0.07,,,0.14,meteohub,2013-05-15 21:21:00,
2013-05-15 17:22:00,84.0,84.0,29.97,West,270,11.0,23.0,0,0.07,,,0.14,meteohub,2013-05-15 21:22:00,
2013-05-15 17:23:00,83.8,83.8,29.97,South,180,11.0,23.0,0,0.07,,,0.14,meteohub,2013-05-15 21:23:00,
2013-05-15 17:26:00,82.9,82.9,29.97,WSW,248,9.0,23.0,0,0.07,,,0.14,meteohub,2013-05-15 21:26:00,
2013-05-15 17:28:00,82.6,82.6,29.97,West,270,13.0,23.0,0,0.07,,,0.14,meteohub,2013-05-15 21:28:00,
2013-05-15 17:29:00,82.6,82.6,29.97,West,270,13.0,23.0,0,0.07,,,0.14,meteohub,2013-05-15 21:29:00,
2013-05-15 17:32:00,82.9,82.9,29.97,South,180,7.0,23.0,0,0.09,,,0.17,meteohub,2013-05-15 21:32:00,
2013-05-15 17:33:00,83.1,83.1,29.97,WSW,248,7.0,23.0,0,0.09,,,0.17,meteohub,2013-05-15 21:33:00,
2013-05-15 17:34:00,83.3,83.3,29.97,NW,315,10.0,23.0,0,0.09,,,0.17,meteohub,2013-05-15 21:34:00,
2013-05-15 17:37:00,83.1,83.1,29.97,West,270,10.0,17.0,0,0.11,,,0.18,meteohub,2013-05-15 21:37:00,
2013-05-15 17:39:00,82.9,82.9,29.97,South,180,15.0,17.0,0,0.11,,,0.18,meteohub,2013-05-15 21:39:00,
2013-05-15 17:40:00,83.1,83.1,29.97,WSW,248,8.0,17.0,0,0.11,,,0.18,meteohub,2013-05-15 21:40:00,
2013-05-15 17:41:00,83.1,83.1,29.97,West,270,15.0,17.0,0,0.11,,,0.18,meteohub,2013-05-15 21:41:00,
2013-05-15 17:43:00,82.8,82.8,29.97,WSW,248,11.0,17.0,0,0.11,,,0.18,meteohub,2013-05-15 21:43:00,
2013-05-15 17:44:00,82.6,82.6,29.97,West,270,9.0,17.0,0,0.11,,,0.18,meteohub,2013-05-15 21:44:00,
2013-05-15 17:46:00,82.6,82.6,29.97,NE,45,6.0,17.0,0,0.11,,,0.18,meteohub,2013-05-15 21:46:00,
2013-05-15 17:48:00,82.9,82.9,29.97,West,270,12.0,17.0,0,0.11,,,0.18,meteohub,2013-05-15 21:48:00,
2013-05-15 17:50:00,82.9,82.9,29.97,North,0,14.0,17.0,0,0.11,,,0.18,meteohub,2013-05-15 21:50:00,
2013-05-15 17:51:00,82.6,82.6,29.96,North,0,14.0,15.0,0,0.11,,,0.18,meteohub,2013-05-15 21:51:00,
2013-05-15 17:52:00,82.6,82.6,29.96,North,0,14.0,15.0,0,0.11,,,0.18,meteohub,2013-05-15 21:52:00,
2013-05-15 17:55:00,82.0,82.0,29.97,WSW,248,11.0,15.0,0,0.11,,,0.18,meteohub,2013-05-15 21:55:00,
2013-05-15 17:57:00,82.4,82.4,29.97,West,270,12.0,18.0,0,0.11,,,0.18,meteohub,2013-05-15 21:57:00,
2013-05-15 17:59:00,82.6,82.6,29.97,East,90,7.0,18.0,0,0.11,,,0.18,meteohub,2013-05-15 21:59:00,
2013-05-15 18:00:00,82.9,82.9,29.97,NW,315,5.0,18.0,0,0.11,,,0.18,meteohub,2013-05-15 22:00:00,
2013-05-15 18:01:00,82.9,82.9,29.97,NW,315,5.0,18.0,0,0.11,,,0.18,meteohub,2013-05-15 22:01:00,
2013-05-15 18:02:00,82.9,82.9,29.97,NW,315,5.0,18.0,0,0.11,,,0.18,meteohub,2013-05-15 22:02:00,
2013-05-15 18:05:00,83.3,83.3,29.96,NW,315,14.0,18.0,0,0.11,,,0.18,meteohub,2013-05-15 22:05:00,
2013-05-15 18:07:00,83.3,83.3,29.97,NW,315,11.0,18.0,0,0.11,,,0.18,meteohub,2013-05-15 22:07:00,
2013-05-15 18:09:00,83.3,83.3,29.97,WSW,248,10.0,18.0,0,0.11,,,0.18,meteohub,2013-05-15 22:09:00,
2013-05-15 18:12:00,83.3,83.3,29.97,WNW,293,17.0,17.0,0,0.09,,,0.19,meteohub,2013-05-15 22:12:00,
2013-05-15 18:13:00,83.1,83.1,29.97,WSW,248,8.0,15.0,0,0.09,,,0.19,meteohub,2013-05-15 22:13:00,
2013-05-15 18:14:00,83.1,83.1,29.97,WSW,248,11.0,15.0,0,0.09,,,0.19,meteohub,2013-05-15 22:14:00,
2013-05-15 18:17:00,83.1,83.1,29.97,WSW,248,12.0,20.0,0,0.17,,,0.24,meteohub,2013-05-15 22:17:00,
2013-05-15 18:18:00,83.3,83.3,29.97,WSW,248,12.0,20.0,0,0.17,,,0.24,meteohub,2013-05-15 22:18:00,
2013-05-15 18:20:00,83.3,83.3,29.97,SE,135,7.0,20.0,0,0.17,,,0.24,meteohub,2013-05-15 22:20:00,
2013-05-15 18:22:00,82.8,82.8,29.97,NW,315,13.0,20.0,0,0.14,,,0.28,meteohub,2013-05-15 22:22:00,
2013-05-15 18:24:00,81.7,81.7,29.97,North,0,12.0,20.0,0,0.14,,,0.28,meteohub,2013-05-15 22:24:00,
2013-05-15 18:25:00,81.5,81.5,29.97,North,0,10.0,20.0,0,0.14,,,0.28,meteohub,2013-05-15 22:25:00,
2013-05-15 18:26:00,81.1,81.1,29.97,WSW,248,7.0,20.0,0,0.14,,,0.28,meteohub,2013-05-15 22:26:00,
2013-05-15 18:27:00,80.8,80.8,29.97,NW,315,8.0,20.0,0,0.14,,,0.28,meteohub,2013-05-15 22:27:00,
2013-05-15 18:30:00,80.4,80.4,29.97,NW,315,11.0,20.0,0,0.14,,,0.28,meteohub,2013-05-15 22:30:00,
2013-05-15 18:34:00,81.3,81.3,29.97,NW,315,5.0,17.0,0,0.12,,,0.28,meteohub,2013-05-15 22:34:00,
2013-05-15 18:35:00,81.5,81.5,29.97,NW,315,11.0,17.0,0,0.12,,,0.28,meteohub,2013-05-15 22:35:00,
2013-05-15 18:39:00,81.7,81.7,29.98,WSW,248,5.0,17.0,0,0.11,,,0.28,meteohub,2013-05-15 22:39:00,
2013-05-15 18:40:00,81.7,81.7,29.98,WSW,248,5.0,17.0,0,0.11,,,0.28,meteohub,2013-05-15 22:40:00,
2013-05-15 18:41:00,81.5,81.5,29.98,West,270,10.0,17.0,0,0.12,,,0.30,meteohub,2013-05-15 22:41:00,
2013-05-15 18:45:00,80.8,80.8,29.98,South,180,8.0,17.0,0,0.12,,,0.30,meteohub,2013-05-15 22:45:00,
2013-05-15 18:46:00,80.4,80.4,29.98,WSW,248,8.0,15.0,0,0.12,,,0.30,meteohub,2013-05-15 22:46:00,
2013-05-15 18:50:00,79.5,79.5,29.98,West,270,8.0,15.0,0,0.12,,,0.30,meteohub,2013-05-15 22:50:00,
2013-05-15 18:51:00,79.3,79.3,29.98,West,270,9.0,16.0,0,0.12,,,0.30,meteohub,2013-05-15 22:51:00,
2013-05-15 18:52:00,79.2,79.2,29.98,South,180,9.0,16.0,0,0.12,,,0.30,meteohub,2013-05-15 22:52:00,
2013-05-15 18:53:00,79.0,79.0,29.98,West,270,9.0,16.0,0,0.12,,,0.30,meteohub,2013-05-15 22:53:00,
2013-05-15 18:55:00,79.0,79.0,29.98,WSW,248,11.0,16.0,0,0.12,,,0.30,meteohub,2013-05-15 22:55:00,
2013-05-15 18:56:00,79.0,79.0,29.98,East,90,11.0,16.0,0,0.12,,,0.30,meteohub,2013-05-15 22:56:00,
2013-05-15 18:58:00,79.2,79.2,29.98,South,180,7.0,16.0,0,0.12,,,0.30,meteohub,2013-05-15 22:58:00,
2013-05-15 18:59:00,79.5,79.5,29.98,West,270,3.0,16.0,0,0.12,,,0.30,meteohub,2013-05-15 22:59:00,
2013-05-15 19:01:00,79.7,79.7,29.98,WSW,248,3.0,15.0,0,0.12,,,0.30,meteohub,2013-05-15 23:01:00,
2013-05-15 19:03:00,79.7,79.7,29.98,WSW,248,8.0,15.0,0,0.12,,,0.30,meteohub,2013-05-15 23:03:00,
2013-05-15 19:05:00,79.7,79.7,29.98,SE,135,4.0,15.0,0,0.12,,,0.30,meteohub,2013-05-15 23:05:00,
2013-05-15 19:06:00,79.3,79.3,29.98,NW,315,8.0,15.0,0,0.11,,,0.30,meteohub,2013-05-15 23:06:00,
2013-05-15 19:08:00,79.0,79.0,29.99,WSW,248,11.0,15.0,0,0.11,,,0.30,meteohub,2013-05-15 23:08:00,
2013-05-15 19:11:00,78.6,78.6,29.98,West,270,7.0,15.0,0,0.11,,,0.30,meteohub,2013-05-15 23:11:00,
2013-05-15 19:12:00,78.4,78.4,29.98,NE,45,9.0,15.0,0,0.11,,,0.30,meteohub,2013-05-15 23:12:00,
2013-05-15 19:13:00,78.4,78.4,29.99,NW,315,8.0,15.0,0,0.11,,,0.30,meteohub,2013-05-15 23:13:00,
2013-05-15 19:16:00,78.1,78.1,29.98,SE,135,9.0,11.0,0,0.01,,,0.30,meteohub,2013-05-15 23:16:00,
2013-05-15 19:17:00,78.1,78.1,29.98,SE,135,9.0,11.0,0,0.01,,,0.30,meteohub,2013-05-15 23:17:00,
2013-05-15 19:19:00,77.9,77.9,29.99,West,270,15.0,15.0,0,0.01,,,0.30,meteohub,2013-05-15 23:19:00,
2013-05-15 19:21:00,77.9,77.9,29.98,NW,315,8.0,11.0,0,0.01,,,0.30,meteohub,2013-05-15 23:21:00,
2013-05-15 19:22:00,77.9,77.9,29.99,West,270,10.0,11.0,0,0.01,,,0.30,meteohub,2013-05-15 23:22:00,
2013-05-15 19:25:00,77.9,77.9,29.99,NW,315,4.0,11.0,0,0.01,,,0.30,meteohub,2013-05-15 23:25:00,
2013-05-15 19:27:00,77.9,77.9,29.98,South,180,8.0,15.0,0,0.01,,,0.30,meteohub,2013-05-15 23:27:00,
2013-05-15 19:28:00,77.7,77.7,29.99,WSW,248,5.0,15.0,0,0.01,,,0.30,meteohub,2013-05-15 23:28:00,
2013-05-15 19:30:00,77.7,77.7,29.99,NNW,338,7.0,15.0,0,0.01,,,0.30,meteohub,2013-05-15 23:30:00,
2013-05-15 19:33:00,77.7,77.7,29.99,WSW,248,6.0,15.0,0,0.01,,,0.30,meteohub,2013-05-15 23:33:00,
2013-05-15 19:34:00,77.7,77.7,29.98,NW,315,11.0,15.0,0,0.01,,,0.30,meteohub,2013-05-15 23:34:00,
2013-05-15 19:36:00,77.5,77.5,29.99,NW,315,6.0,17.0,0,0.01,,,0.30,meteohub,2013-05-15 23:36:00,
2013-05-15 19:37:00,77.5,77.5,29.99,West,270,5.0,17.0,0,0.01,,,0.30,meteohub,2013-05-15 23:37:00,
2013-05-15 19:38:00,77.5,77.5,29.99,WSW,248,4.0,17.0,0,0.01,,,0.30,meteohub,2013-05-15 23:38:00,
2013-05-15 19:40:00,77.4,77.4,29.99,WNW,293,2.0,17.0,0,0.01,,,0.30,meteohub,2013-05-15 23:40:00,
2013-05-15 19:42:00,77.2,77.2,29.99,South,180,2.0,17.0,0,0.00,,,0.30,meteohub,2013-05-15 23:42:00,
2013-05-15 19:44:00,77.0,77.0,29.99,WSW,248,3.0,17.0,0,0.00,,,0.30,meteohub,2013-05-15 23:44:00,
2013-05-15 19:46:00,76.8,76.8,29.99,South,180,11.0,17.0,0,0.00,,,0.30,meteohub,2013-05-15 23:46:00,
2013-05-15 19:49:00,77.0,77.0,29.99,NW,315,11.0,17.0,0,0.00,,,0.30,meteohub,2013-05-15 23:49:00,
2013-05-15 19:50:00,77.0,77.0,29.99,NW,315,11.0,17.0,0,0.00,,,0.30,meteohub,2013-05-15 23:50:00,
2013-05-15 19:52:00,77.0,77.0,29.99,South,180,8.0,16.0,0,0.00,,,0.30,meteohub,2013-05-15 23:52:00,
2013-05-15 19:55:00,76.6,76.6,29.99,NNW,338,13.0,16.0,0,0.00,,,0.30,meteohub,2013-05-15 23:55:00,
2013-05-15 19:58:00,76.5,76.5,30.00,WSW,248,9.0,16.0,0,0.00,,,0.30,meteohub,2013-05-15 23:58:00,
2013-05-15 19:59:00,76.5,76.5,30.00,WSW,248,9.0,16.0,0,0.00,,,0.30,meteohub,2013-05-15 23:59:00,
2013-05-15 20:00:00,76.3,76.3,30.00,WSW,248,4.0,16.0,0,0.00,,,0.30,meteohub,2013-05-16 00:00:00,
2013-05-15 20:02:00,76.3,76.3,29.99,WSW,248,4.0,16.0,0,0.00,,,0.30,meteohub,2013-05-16 00:02:00,
2013-05-15 20:04:00,76.3,76.3,30.00,WSW,248,4.0,16.0,0,0.00,,,0.30,meteohub,2013-05-16 00:04:00,
2013-05-15 20:05:00,76.1,76.1,30.00,West,270,8.0,15.0,0,0.00,,,0.30,meteohub,2013-05-16 00:05:00,
2013-05-15 20:07:00,75.9,75.9,30.00,South,180,4.0,15.0,0,0.00,,,0.30,meteohub,2013-05-16 00:07:00,
2013-05-15 20:09:00,75.7,75.7,30.00,West,270,6.0,15.0,0,0.00,,,0.30,meteohub,2013-05-16 00:09:00,
2013-05-15 20:10:00,75.7,75.7,30.00,NE,45,2.0,15.0,0,0.00,,,0.30,meteohub,2013-05-16 00:10:00,
2013-05-15 20:12:00,75.6,75.6,30.00,North,0,2.0,15.0,0,0.00,,,0.30,meteohub,2013-05-16 00:12:00,
2013-05-15 20:15:00,75.4,75.4,30.00,South,180,11.0,11.0,0,0.00,,,0.30,meteohub,2013-05-16 00:15:00,
2013-05-15 20:16:00,75.4,75.4,30.00,WSW,248,6.0,9.0,0,0.00,,,0.30,meteohub,2013-05-16 00:16:00,
2013-05-15 20:17:00,75.4,75.4,30.00,South,180,5.0,9.0,0,0.00,,,0.30,meteohub,2013-05-16 00:17:00,
2013-05-15 20:18:00,75.4,75.4,30.00,WSW,248,11.0,11.0,0,0.00,,,0.30,meteohub,2013-05-16 00:18:00,
2013-05-15 20:21:00,75.0,75.0,30.00,South,180,4.0,11.0,0,0.00,,,0.30,meteohub,2013-05-16 00:21:00,
2013-05-15 20:23:00,75.0,75.0,30.00,NW,315,10.0,11.0,0,0.00,,,0.30,meteohub,2013-05-16 00:23:00,
2013-05-15 20:24:00,75.0,75.0,30.00,WSW,248,4.0,11.0,0,0.00,,,0.30,meteohub,2013-05-16 00:24:00,
2013-05-15 20:27:00,75.0,75.0,30.00,South,180,3.0,11.0,0,0.00,,,0.30,meteohub,2013-05-16 00:27:00,
2013-05-15 20:29:00,74.7,74.7,30.01,West,270,7.0,11.0,0,0.00,,,0.30,meteohub,2013-05-16 00:29:00,
2013-05-15 20:30:00,74.5,74.5,30.01,West,270,8.0,11.0,0,0.00,,,0.30,meteohub,2013-05-16 00:30:00,
2013-05-15 20:33:00,74.7,74.7,30.01,NW,315,11.0,11.0,0,0.00,,,0.30,meteohub,2013-05-16 00:33:00,
2013-05-15 20:34:00,74.7,74.7,30.00,NW,315,11.0,11.0,0,0.00,,,0.30,meteohub,2013-05-16 00:34:00,
2013-05-15 20:36:00,74.7,74.7,30.00,NW,315,11.0,14.0,0,0.00,,,0.30,meteohub,2013-05-16 00:36:00,
2013-05-15 20:37:00,74.7,74.7,30.00,NW,315,11.0,14.0,0,0.00,,,0.30,meteohub,2013-05-16 00:37:00,
2013-05-15 20:39:00,74.7,74.7,30.00,NW,315,11.0,14.0,0,0.00,,,0.30,meteohub,2013-05-16 00:39:00,
2013-05-15 20:41:00,73.9,73.9,30.01,West,270,8.0,14.0,0,0.00,,,0.30,meteohub,2013-05-16 00:41:00,
2013-05-15 20:43:00,73.9,73.9,30.00,NW,315,5.0,14.0,0,0.00,,,0.30,meteohub,2013-05-16 00:43:00,
2013-05-15 20:46:00,73.8,73.8,30.01,South,180,11.0,14.0,0,0.00,,,0.30,meteohub,2013-05-16 00:46:00,
2013-05-15 20:47:00,73.8,73.8,30.01,South,180,11.0,14.0,0,0.00,,,0.30,meteohub,2013-05-16 00:47:00,
2013-05-15 20:48:00,73.6,73.6,30.01,NW,315,6.0,14.0,0,0.00,,,0.30,meteohub,2013-05-16 00:48:00,
2013-05-15 20:51:00,73.6,73.6,30.01,West,270,11.0,11.0,0,0.00,,,0.30,meteohub,2013-05-16 00:51:00,
2013-05-15 20:53:00,73.6,73.6,30.01,WSW,248,2.0,11.0,0,0.00,,,0.30,meteohub,2013-05-16 00:53:00,
2013-05-15 20:54:00,73.6,73.6,30.01,WSW,248,3.0,11.0,0,0.00,,,0.30,meteohub,2013-05-16 00:54:00,
2013-05-15 20:56:00,73.4,73.4,30.01,NW,315,11.0,11.0,0,0.00,,,0.30,meteohub,2013-05-16 00:56:00,
2013-05-15 20:58:00,73.4,73.4,30.01,WSW,248,3.0,11.0,0,0.00,,,0.30,meteohub,2013-05-16 00:58:00,
2013-05-15 20:59:00,73.4,73.4,30.01,WSW,248,3.0,11.0,0,0.00,,,0.30,meteohub,2013-05-16 00:59:00,
2013-05-15 21:01:00,73.4,73.4,30.01,South,180,7.0,11.0,0,0.00,,,0.30,meteohub,2013-05-16 01:01:00,
2013-05-15 21:04:00,73.4,73.4,30.01,South,180,7.0,11.0,0,0.00,,,0.30,meteohub,2013-05-16 01:04:00,
2013-05-15 21:05:00,73.2,73.2,30.01,NW,315,5.0,11.0,0,0.00,,,0.30,meteohub,2013-05-16 01:05:00,
2013-05-15 21:08:00,73.4,73.4,30.01,North,0,6.0,11.0,0,0.00,,,0.30,meteohub,2013-05-16 01:08:00,
2013-05-15 21:09:00,73.2,73.2,30.02,SE,135,9.0,11.0,0,0.00,,,0.30,meteohub,2013-05-16 01:09:00,
2013-05-15 21:10:00,73.2,73.2,30.02,SE,135,9.0,11.0,0,0.00,,,0.30,meteohub,2013-05-16 01:10:00,
2013-05-15 21:14:00,73.2,73.2,30.01,NW,315,3.0,11.0,0,0.00,,,0.30,meteohub,2013-05-16 01:14:00,
2013-05-15 21:15:00,73.0,73.0,30.02,WSW,248,2.0,11.0,0,0.00,,,0.30,meteohub,2013-05-16 01:15:00,
2013-05-15 21:17:00,72.9,72.9,30.02,SE,135,4.0,9.0,0,0.00,,,0.30,meteohub,2013-05-16 01:17:00,
2013-05-15 21:19:00,72.5,72.5,30.02,South,180,2.0,9.0,0,0.00,,,0.30,meteohub,2013-05-16 01:19:00,
2013-05-15 21:20:00,72.5,72.5,30.02,South,180,2.0,9.0,0,0.00,,,0.30,meteohub,2013-05-16 01:20:00,
2013-05-15 21:22:00,72.5,72.5,30.02,SE,135,3.0,9.0,0,0.00,,,0.30,meteohub,2013-05-16 01:22:00,
2013-05-15 21:24:00,72.3,72.3,30.02,NW,315,6.0,9.0,0,0.00,,,0.30,meteohub,2013-05-16 01:24:00,
2013-05-15 21:25:00,72.3,72.3,30.02,East,90,4.0,8.0,0,0.00,,,0.30,meteohub,2013-05-16 01:25:00,
2013-05-15 21:28:00,72.1,72.1,30.02,West,270,6.0,8.0,0,0.00,,,0.30,meteohub,2013-05-16 01:28:00,
2013-05-15 21:30:00,72.3,72.3,30.02,SE,135,6.0,8.0,0,0.00,,,0.30,meteohub,2013-05-16 01:30:00,
2013-05-15 21:31:00,72.1,72.1,30.02,South,180,3.0,7.0,0,0.00,,,0.30,meteohub,2013-05-16 01:31:00,
2013-05-15 21:34:00,72.0,72.0,30.02,WSW,248,7.0,7.0,0,0.00,,,0.30,meteohub,2013-05-16 01:34:00,
2013-05-15 21:35:00,72.0,72.0,30.02,WSW,248,7.0,10.0,0,0.00,,,0.30,meteohub,2013-05-16 01:35:00,
2013-05-15 21:36:00,71.8,71.8,30.02,NW,315,4.0,10.0,0,0.00,,,0.30,meteohub,2013-05-16 01:36:00,
2013-05-15 21:40:00,71.8,71.8,30.02,West,270,4.0,10.0,0,0.00,,,0.30,meteohub,2013-05-16 01:40:00,
2013-05-15 21:41:00,71.8,71.8,30.02,NW,315,4.0,10.0,0,0.00,,,0.30,meteohub,2013-05-16 01:41:00,
2013-05-15 21:42:00,71.8,71.8,30.02,East,90,3.0,10.0,0,0.00,,,0.30,meteohub,2013-05-16 01:42:00,
2013-05-15 21:46:00,71.6,71.6,30.02,West,270,3.0,7.0,0,0.00,,,0.30,meteohub,2013-05-16 01:46:00,
2013-05-15 21:47:00,71.6,71.6,30.03,WNW,293,4.0,7.0,0,0.00,,,0.30,meteohub,2013-05-16 01:47:00,
2013-05-15 21:52:00,71.6,71.6,30.03,West,270,4.0,7.0,0,0.00,,,0.30,meteohub,2013-05-16 01:52:00,
2013-05-15 21:55:00,71.2,71.2,30.03,WSW,248,2.0,7.0,0,0.00,,,0.30,meteohub,2013-05-16 01:55:00,
2013-05-15 21:57:00,71.1,71.1,30.03,WSW,248,3.0,7.0,0,0.00,,,0.30,meteohub,2013-05-16 01:57:00,
2013-05-15 21:58:00,71.1,71.1,30.03,WSW,248,3.0,7.0,0,0.00,,,0.30,meteohub,2013-05-16 01:58:00,
2013-05-15 22:02:00,71.1,71.1,30.04,West,270,6.0,6.0,0,0.00,,,0.30,meteohub,2013-05-16 02:02:00,
2013-05-15 22:03:00,71.1,71.1,30.03,South,180,2.0,4.0,0,0.00,,,0.30,meteohub,2013-05-16 02:03:00,
2013-05-15 22:05:00,70.9,70.9,30.03,West,270,5.0,7.0,0,0.00,,,0.30,meteohub,2013-05-16 02:05:00,
2013-05-15 22:07:00,70.9,70.9,30.03,South,180,4.0,7.0,0,0.00,,,0.30,meteohub,2013-05-16 02:07:00,
2013-05-15 22:08:00,70.9,70.9,30.04,NW,315,3.0,7.0,0,0.00,,,0.30,meteohub,2013-05-16 02:08:00,
2013-05-15 22:10:00,70.9,70.9,30.03,NW,315,2.0,7.0,0,0.00,,,0.30,meteohub,2013-05-16 02:10:00,
2013-05-15 22:11:00,70.9,70.9,30.03,NW,315,2.0,7.0,0,0.00,,,0.30,meteohub,2013-05-16 02:11:00,
2013-05-15 22:12:00,70.9,70.9,30.04,North,0,6.0,7.0,0,0.00,,,0.30,meteohub,2013-05-16 02:12:00,
2013-05-15 22:13:00,70.9,70.9,30.04,NW,315,3.0,7.0,0,0.00,,,0.30,meteohub,2013-05-16 02:13:00,
2013-05-15 22:15:00,70.7,70.7,30.04,WSW,248,5.0,7.0,0,0.00,,,0.30,meteohub,2013-05-16 02:15:00,
2013-05-15 22:17:00,70.7,70.7,30.04,WSW,248,3.0,7.0,0,0.00,,,0.30,meteohub,2013-05-16 02:17:00,
2013-05-15 22:18:00,70.7,70.7,30.04,NW,315,4.0,7.0,0,0.00,,,0.30,meteohub,2013-05-16 02:18:00,
2013-05-15 22:19:00,70.9,70.9,30.04,WSW,248,2.0,7.0,0,0.00,,,0.30,meteohub,2013-05-16 02:19:00,
2013-05-15 22:20:00,70.9,70.9,30.04,SE,135,2.0,7.0,0,0.00,,,0.30,meteohub,2013-05-16 02:20:00,
2013-05-15 22:22:00,70.9,70.9,30.04,SE,135,4.0,7.0,0,0.00,,,0.30,meteohub,2013-05-16 02:22:00,
2013-05-15 22:23:00,70.9,70.9,30.04,NW,315,2.0,7.0,0,0.00,,,0.30,meteohub,2013-05-16 02:23:00,
2013-05-15 22:26:00,70.9,70.9,30.04,NW,315,3.0,6.0,0,0.00,,,0.30,meteohub,2013-05-16 02:26:00,
2013-05-15 22:29:00,70.9,70.9,30.04,WSW,248,6.0,6.0,0,0.00,,,0.30,meteohub,2013-05-16 02:29:00,
2013-05-15 22:31:00,71.1,71.1,30.04,South,180,3.0,6.0,0,0.00,,,0.30,meteohub,2013-05-16 02:31:00,
2013-05-15 22:32:00,71.1,71.1,30.04,NW,315,2.0,6.0,0,0.00,,,0.30,meteohub,2013-05-16 02:32:00,
2013-05-15 22:36:00,70.9,70.9,30.04,South,180,2.0,6.0,0,0.00,,,0.30,meteohub,2013-05-16 02:36:00,
2013-05-15 22:37:00,70.9,70.9,30.04,NE,45,4.0,6.0,0,0.00,,,0.30,meteohub,2013-05-16 02:37:00,
2013-05-15 22:38:00,70.9,70.9,30.04,North,0,3.0,6.0,0,0.00,,,0.30,meteohub,2013-05-16 02:38:00,
2013-05-15 22:41:00,70.9,70.9,30.05,NE,45,2.0,6.0,0,0.00,,,0.30,meteohub,2013-05-16 02:41:00,
2013-05-15 22:42:00,70.7,70.7,30.04,North,0,2.0,6.0,0,0.00,,,0.30,meteohub,2013-05-16 02:42:00,
2013-05-15 22:43:00,70.7,70.7,30.05,NW,315,4.0,6.0,0,0.00,,,0.30,meteohub,2013-05-16 02:43:00,
2013-05-15 22:47:00,70.7,70.7,30.05,West,270,2.0,6.0,0,0.00,,,0.30,meteohub,2013-05-16 02:47:00,
2013-05-15 22:48:00,70.7,70.7,30.05,NW,315,2.0,6.0,0,0.00,,,0.30,meteohub,2013-05-16 02:48:00,
2013-05-15 22:49:00,70.7,70.7,30.05,NW,315,2.0,6.0,0,0.00,,,0.30,meteohub,2013-05-16 02:49:00,
2013-05-15 22:50:00,70.7,70.7,30.05,NW,315,2.0,6.0,0,0.00,,,0.30,meteohub,2013-05-16 02:50:00,
2013-05-15 22:54:00,70.7,70.7,30.04,NW,315,2.0,6.0,0,0.00,,,0.30,meteohub,2013-05-16 02:54:00,
2013-05-15 22:57:00,69.8,69.8,30.04,NW,315,0.0,4.0,0,0.00,,,0.30,meteohub,2013-05-16 02:57:00,
2013-05-15 22:59:00,69.8,69.8,30.04,NW,315,1.0,4.0,0,0.00,,,0.30,meteohub,2013-05-16 02:59:00,
2013-05-15 23:00:00,69.6,69.6,30.05,North,0,1.0,4.0,0,0.00,,,0.30,meteohub,2013-05-16 03:00:00,
2013-05-15 23:04:00,69.6,69.6,30.05,North,0,1.0,4.0,0,0.00,,,0.30,meteohub,2013-05-16 03:04:00,
2013-05-15 23:06:00,69.6,69.6,30.05,North,0,1.0,4.0,0,0.00,,,0.30,meteohub,2013-05-16 03:06:00,
2013-05-15 23:09:00,69.1,69.1,30.05,WSW,248,0.0,4.0,0,0.00,,,0.30,meteohub,2013-05-16 03:09:00,
2013-05-15 23:10:00,69.1,69.1,30.05,WSW,248,0.0,4.0,0,0.00,,,0.30,meteohub,2013-05-16 03:10:00,
2013-05-15 23:12:00,69.1,69.1,30.05,WSW,248,4.0,4.0,0,0.00,,,0.30,meteohub,2013-05-16 03:12:00,
2013-05-15 23:14:00,68.7,68.7,30.05,South,180,1.0,4.0,0,0.00,,,0.30,meteohub,2013-05-16 03:14:00,
2013-05-15 23:16:00,68.7,68.7,30.04,NE,45,1.0,4.0,0,0.00,,,0.30,meteohub,2013-05-16 03:16:00,
2013-05-15 23:17:00,68.5,68.5,30.04,North,0,2.0,4.0,0,0.00,,,0.30,meteohub,2013-05-16 03:17:00,
2013-05-15 23:21:00,68.5,68.5,30.05,East,90,2.0,4.0,0,0.00,,,0.30,meteohub,2013-05-16 03:21:00,
2013-05-15 23:23:00,68.4,68.4,30.04,NW,315,2.0,4.0,0,0.00,,,0.30,meteohub,2013-05-16 03:23:00,
2013-05-15 23:24:00,68.4,68.4,30.04,West,270,2.0,4.0,0,0.00,,,0.30,meteohub,2013-05-16 03:24:00,
2013-05-15 23:26:00,68.5,68.5,30.04,North,0,1.0,4.0,0,0.00,,,0.30,meteohub,2013-05-16 03:26:00,
2013-05-15 23:27:00,68.5,68.5,30.04,North,0,1.0,4.0,0,0.00,,,0.30,meteohub,2013-05-16 03:27:00,
2013-05-15 23:30:00,68.4,68.4,30.04,NE,45,2.0,4.0,0,0.00,,,0.30,meteohub,2013-05-16 03:30:00,
2013-05-15 23:31:00,68.4,68.4,30.04,West,270,2.0,3.0,0,0.00,,,0.30,meteohub,2013-05-16 03:31:00,
2013-05-15 23:32:00,68.4,68.4,30.04,West,270,2.0,3.0,0,0.00,,,0.30,meteohub,2013-05-16 03:32:00,
2013-05-15 23:35:00,68.4,68.4,30.04,East,90,0.0,3.0,0,0.00,,,0.30,meteohub,2013-05-16 03:35:00,
2013-05-15 23:37:00,68.4,68.4,30.04,NE,45,1.0,3.0,0,0.00,,,0.30,meteohub,2013-05-16 03:37:00,
2013-05-15 23:38:00,68.2,68.2,30.04,NE,45,0.0,3.0,0,0.00,,,0.30,meteohub,2013-05-16 03:38:00,
2013-05-15 23:39:00,68.2,68.2,30.04,North,0,1.0,3.0,0,0.00,,,0.30,meteohub,2013-05-16 03:39:00,
2013-05-15 23:40:00,68.0,68.0,30.04,NE,45,2.0,2.0,0,0.00,,,0.30,meteohub,2013-05-16 03:40:00,
2013-05-15 23:42:00,67.8,67.8,30.05,NE,45,2.0,2.0,0,0.00,,,0.30,meteohub,2013-05-16 03:42:00,
2013-05-15 23:43:00,67.8,67.8,30.05,NE,45,2.0,2.0,0,0.00,,,0.30,meteohub,2013-05-16 03:43:00,
2013-05-15 23:46:00,67.8,67.8,30.04,NE,45,0.0,2.0,0,0.00,,,0.30,meteohub,2013-05-16 03:46:00,
2013-05-15 23:48:00,67.6,67.6,30.04,North,0,1.0,2.0,0,0.00,,,0.30,meteohub,2013-05-16 03:48:00,
2013-05-15 23:49:00,67.6,67.6,30.04,North,0,0.0,2.0,0,0.00,,,0.30,meteohub,2013-05-16 03:49:00,
2013-05-15 23:52:00,67.6,67.6,30.04,West,270,2.0,2.0,0,0.00,,,0.30,meteohub,2013-05-16 03:52:00,
2013-05-15 23:53:00,67.6,67.6,30.04,East,90,2.0,2.0,0,0.00,,,0.30,meteohub,2013-05-16 03:53:00,
2013-05-15 23:54:00,67.6,67.6,30.04,SE,135,1.0,2.0,0,0.00,,,0.30,meteohub,2013-05-16 03:54:00,
2013-05-15 23:58:00,67.5,67.5,30.04,NW,315,2.0,2.0,0,0.00,,,0.30,meteohub,2013-05-16 03:58:00,